<?xml version='1.0' encoding='UTF-8'?>
<gpx version="1.1" creator="https://www.komoot.de" xmlns="http://www.topografix.com/GPX/1/1" xmlns:xsi="http://www.w3.org/2001/XMLSchema-instance" xsi:schemaLocation="http://www.topografix.com/GPX/1/1 http://www.topografix.com/GPX/1/1/gpx.xsd">
  <metadata>
    <name>37_350WehrRiburg</name>
    <author>
      <link href="https://www.komoot.de">
        <text>komoot</text>
        <type>text/html</type>
      </link>
    </author>
  </metadata>
  <trk>
    <name>37_350WehrRiburg</name>
    <trkseg>
      <trkpt lat="47.541521" lon="7.870517">
        <ele>341.222740</ele>
        <time>2021-11-07T10:21:37.789Z</time>
      </trkpt>
      <trkpt lat="47.541550" lon="7.870601">
        <ele>341.222740</ele>
        <time>2021-11-07T10:21:39.244Z</time>
      </trkpt>
      <trkpt lat="47.541576" lon="7.870664">
        <ele>341.222740</ele>
        <time>2021-11-07T10:21:40.395Z</time>
      </trkpt>
      <trkpt lat="47.541796" lon="7.871042">
        <ele>341.222740</ele>
        <time>2021-11-07T10:21:47.762Z</time>
      </trkpt>
      <trkpt lat="47.541953" lon="7.871286">
        <ele>341.222740</ele>
        <time>2021-11-07T10:21:52.599Z</time>
      </trkpt>
      <trkpt lat="47.542039" lon="7.871556">
        <ele>341.222740</ele>
        <time>2021-11-07T10:21:57.203Z</time>
      </trkpt>
      <trkpt lat="47.542067" lon="7.871664">
        <ele>341.460230</ele>
        <time>2021-11-07T10:21:58.793Z</time>
      </trkpt>
      <trkpt lat="47.542091" lon="7.871721">
        <ele>341.644927</ele>
        <time>2021-11-07T10:21:59.397Z</time>
      </trkpt>
      <trkpt lat="47.542218" lon="7.871866">
        <ele>342.297968</ele>
        <time>2021-11-07T10:22:04.764Z</time>
      </trkpt>
      <trkpt lat="47.542394" lon="7.872341">
        <ele>343.787681</ele>
        <time>2021-11-07T10:22:15.006Z</time>
      </trkpt>
      <trkpt lat="47.542436" lon="7.872494">
        <ele>344.241775</ele>
        <time>2021-11-07T10:22:18.333Z</time>
      </trkpt>
      <trkpt lat="47.542537" lon="7.872430">
        <ele>344.689178</ele>
        <time>2021-11-07T10:22:20.369Z</time>
      </trkpt>
      <trkpt lat="47.542714" lon="7.872334">
        <ele>345.456856</ele>
        <time>2021-11-07T10:22:27.482Z</time>
      </trkpt>
      <trkpt lat="47.542814" lon="7.872280">
        <ele>345.890349</ele>
        <time>2021-11-07T10:22:30.359Z</time>
      </trkpt>
      <trkpt lat="47.542919" lon="7.872226">
        <ele>346.343027</ele>
        <time>2021-11-07T10:22:34.199Z</time>
      </trkpt>
      <trkpt lat="47.543013" lon="7.872182">
        <ele>346.744525</ele>
        <time>2021-11-07T10:22:37.829Z</time>
      </trkpt>
      <trkpt lat="47.543233" lon="7.872082">
        <ele>347.681766</ele>
        <time>2021-11-07T10:22:44.927Z</time>
      </trkpt>
      <trkpt lat="47.543251" lon="7.872152">
        <ele>347.887704</ele>
        <time>2021-11-07T10:22:48.342Z</time>
      </trkpt>
      <trkpt lat="47.543332" lon="7.872237">
        <ele>348.291981</ele>
        <time>2021-11-07T10:22:51.752Z</time>
      </trkpt>
      <trkpt lat="47.544390" lon="7.872423">
        <ele>355.053855</ele>
        <time>2021-11-07T10:23:33.383Z</time>
      </trkpt>
      <trkpt lat="47.544883" lon="7.872555">
        <ele>358.304935</ele>
        <time>2021-11-07T10:23:55.726Z</time>
      </trkpt>
      <trkpt lat="47.545131" lon="7.872664">
        <ele>359.983626</ele>
        <time>2021-11-07T10:24:06.730Z</time>
      </trkpt>
      <trkpt lat="47.545375" lon="7.872836">
        <ele>361.730511</ele>
        <time>2021-11-07T10:24:17.671Z</time>
      </trkpt>
      <trkpt lat="47.545478" lon="7.872968">
        <ele>362.610440</ele>
        <time>2021-11-07T10:24:24.478Z</time>
      </trkpt>
      <trkpt lat="47.545515" lon="7.873015">
        <ele>362.925343</ele>
        <time>2021-11-07T10:24:26.435Z</time>
      </trkpt>
      <trkpt lat="47.545746" lon="7.873302">
        <ele>364.873211</ele>
        <time>2021-11-07T10:24:39.635Z</time>
      </trkpt>
      <trkpt lat="47.545934" lon="7.873549">
        <ele>366.496727</ele>
        <time>2021-11-07T10:24:49.735Z</time>
      </trkpt>
      <trkpt lat="47.546077" lon="7.873763">
        <ele>367.809991</ele>
        <time>2021-11-07T10:24:58.931Z</time>
      </trkpt>
      <trkpt lat="47.546135" lon="7.873859">
        <ele>368.371875</ele>
        <time>2021-11-07T10:25:02.170Z</time>
      </trkpt>
      <trkpt lat="47.546309" lon="7.874154">
        <ele>370.080394</ele>
        <time>2021-11-07T10:25:13.285Z</time>
      </trkpt>
      <trkpt lat="47.547126" lon="7.875801">
        <ele>375.783581</ele>
        <time>2021-11-07T10:25:59.046Z</time>
      </trkpt>
      <trkpt lat="47.547574" lon="7.876801">
        <ele>378.114641</ele>
        <time>2021-11-07T10:26:18.042Z</time>
      </trkpt>
      <trkpt lat="47.547992" lon="7.877974">
        <ele>377.121509</ele>
        <time>2021-11-07T10:26:30.842Z</time>
      </trkpt>
      <trkpt lat="47.548234" lon="7.878638">
        <ele>376.556517</ele>
        <time>2021-11-07T10:26:36.154Z</time>
      </trkpt>
      <trkpt lat="47.548422" lon="7.878959">
        <ele>376.203286</ele>
        <time>2021-11-07T10:26:38.997Z</time>
      </trkpt>
      <trkpt lat="47.548718" lon="7.879258">
        <ele>374.709271</ele>
        <time>2021-11-07T10:26:42.536Z</time>
      </trkpt>
      <trkpt lat="47.549140" lon="7.879391">
        <ele>372.910035</ele>
        <time>2021-11-07T10:26:46.744Z</time>
      </trkpt>
      <trkpt lat="47.549318" lon="7.879398">
        <ele>372.167464</ele>
        <time>2021-11-07T10:26:48.384Z</time>
      </trkpt>
      <trkpt lat="47.549327" lon="7.879547">
        <ele>371.746390</ele>
        <time>2021-11-07T10:26:49.346Z</time>
      </trkpt>
      <trkpt lat="47.549726" lon="7.880786">
        <ele>367.999807</ele>
        <time>2021-11-07T10:26:58.297Z</time>
      </trkpt>
      <trkpt lat="47.549900" lon="7.881396">
        <ele>366.388153</ele>
        <time>2021-11-07T10:27:02.651Z</time>
      </trkpt>
      <trkpt lat="47.549927" lon="7.881490">
        <ele>366.139537</ele>
        <time>2021-11-07T10:27:03.311Z</time>
      </trkpt>
      <trkpt lat="47.550234" lon="7.883221">
        <ele>361.677648</ele>
        <time>2021-11-07T10:27:15.730Z</time>
      </trkpt>
      <trkpt lat="47.550332" lon="7.884727">
        <ele>357.182084</ele>
        <time>2021-11-07T10:27:25.550Z</time>
      </trkpt>
      <trkpt lat="47.550391" lon="7.885109">
        <ele>356.017701</ele>
        <time>2021-11-07T10:27:28.082Z</time>
      </trkpt>
      <trkpt lat="47.550548" lon="7.885799">
        <ele>353.706030</ele>
        <time>2021-11-07T10:27:32.687Z</time>
      </trkpt>
      <trkpt lat="47.550677" lon="7.886476">
        <ele>350.987288</ele>
        <time>2021-11-07T10:27:37.117Z</time>
      </trkpt>
      <trkpt lat="47.550758" lon="7.887295">
        <ele>347.788220</ele>
        <time>2021-11-07T10:27:42.259Z</time>
      </trkpt>
      <trkpt lat="47.550789" lon="7.887816">
        <ele>345.766855</ele>
        <time>2021-11-07T10:27:45.491Z</time>
      </trkpt>
      <trkpt lat="47.550831" lon="7.888611">
        <ele>342.562310</ele>
        <time>2021-11-07T10:27:50.447Z</time>
      </trkpt>
      <trkpt lat="47.550833" lon="7.889069">
        <ele>340.632854</ele>
        <time>2021-11-07T10:27:53.257Z</time>
      </trkpt>
      <trkpt lat="47.550915" lon="7.890600">
        <ele>334.162943</ele>
        <time>2021-11-07T10:28:02.650Z</time>
      </trkpt>
      <trkpt lat="47.550904" lon="7.891725">
        <ele>330.674070</ele>
        <time>2021-11-07T10:28:09.654Z</time>
      </trkpt>
      <trkpt lat="47.550892" lon="7.893176">
        <ele>326.811607</ele>
        <time>2021-11-07T10:28:19.266Z</time>
      </trkpt>
      <trkpt lat="47.550908" lon="7.894308">
        <ele>325.120282</ele>
        <time>2021-11-07T10:28:28.471Z</time>
      </trkpt>
      <trkpt lat="47.550878" lon="7.895158">
        <ele>324.407302</ele>
        <time>2021-11-07T10:28:35.656Z</time>
      </trkpt>
      <trkpt lat="47.550838" lon="7.895509">
        <ele>324.109123</ele>
        <time>2021-11-07T10:28:38.820Z</time>
      </trkpt>
      <trkpt lat="47.550660" lon="7.896255">
        <ele>323.384238</ele>
        <time>2021-11-07T10:28:45.308Z</time>
      </trkpt>
      <trkpt lat="47.550639" lon="7.896345">
        <ele>323.203295</ele>
        <time>2021-11-07T10:28:46.496Z</time>
      </trkpt>
      <trkpt lat="47.550648" lon="7.896481">
        <ele>322.943638</ele>
        <time>2021-11-07T10:28:47.451Z</time>
      </trkpt>
      <trkpt lat="47.550819" lon="7.898109">
        <ele>319.812990</ele>
        <time>2021-11-07T10:28:59.199Z</time>
      </trkpt>
      <trkpt lat="47.550801" lon="7.900244">
        <ele>314.385401</ele>
        <time>2021-11-07T10:29:13.036Z</time>
      </trkpt>
      <trkpt lat="47.550769" lon="7.901362">
        <ele>311.170083</ele>
        <time>2021-11-07T10:29:20.308Z</time>
      </trkpt>
      <trkpt lat="47.550757" lon="7.901591">
        <ele>310.546192</ele>
        <time>2021-11-07T10:29:22.444Z</time>
      </trkpt>
      <trkpt lat="47.550688" lon="7.902451">
        <ele>308.397583</ele>
        <time>2021-11-07T10:29:30.878Z</time>
      </trkpt>
      <trkpt lat="47.550498" lon="7.903445">
        <ele>305.834559</ele>
        <time>2021-11-07T10:29:41.128Z</time>
      </trkpt>
      <trkpt lat="47.550302" lon="7.904164">
        <ele>303.900323</ele>
        <time>2021-11-07T10:29:48.388Z</time>
      </trkpt>
      <trkpt lat="47.550025" lon="7.904774">
        <ele>302.000736</ele>
        <time>2021-11-07T10:29:55.268Z</time>
      </trkpt>
      <trkpt lat="47.549868" lon="7.905010">
        <ele>301.144568</ele>
        <time>2021-11-07T10:29:58.377Z</time>
      </trkpt>
      <trkpt lat="47.549867" lon="7.905155">
        <ele>300.769904</ele>
        <time>2021-11-07T10:29:59.769Z</time>
      </trkpt>
      <trkpt lat="47.550067" lon="7.905245">
        <ele>299.969753</ele>
        <time>2021-11-07T10:30:02.677Z</time>
      </trkpt>
      <trkpt lat="47.550283" lon="7.905413">
        <ele>299.035879</ele>
        <time>2021-11-07T10:30:06.114Z</time>
      </trkpt>
      <trkpt lat="47.550497" lon="7.905558">
        <ele>298.135069</ele>
        <time>2021-11-07T10:30:09.462Z</time>
      </trkpt>
      <trkpt lat="47.550362" lon="7.905991">
        <ele>297.059164</ele>
        <time>2021-11-07T10:30:12.649Z</time>
      </trkpt>
      <trkpt lat="47.549539" lon="7.908625">
        <ele>292.939198</ele>
        <time>2021-11-07T10:30:34.085Z</time>
      </trkpt>
      <trkpt lat="47.549520" lon="7.908678">
        <ele>292.888019</ele>
        <time>2021-11-07T10:30:34.594Z</time>
      </trkpt>
      <trkpt lat="47.549262" lon="7.909534">
        <ele>292.088517</ele>
        <time>2021-11-07T10:30:42.382Z</time>
      </trkpt>
      <trkpt lat="47.549195" lon="7.909756">
        <ele>291.881124</ele>
        <time>2021-11-07T10:30:44.380Z</time>
      </trkpt>
      <trkpt lat="47.549102" lon="7.910058">
        <ele>291.598028</ele>
        <time>2021-11-07T10:30:47.116Z</time>
      </trkpt>
      <trkpt lat="47.549012" lon="7.910340">
        <ele>291.331998</ele>
        <time>2021-11-07T10:30:49.637Z</time>
      </trkpt>
      <trkpt lat="47.548412" lon="7.912168">
        <ele>289.818344</ele>
        <time>2021-11-07T10:31:05.961Z</time>
      </trkpt>
      <trkpt lat="47.548027" lon="7.913334">
        <ele>289.032099</ele>
        <time>2021-11-07T10:31:16.722Z</time>
      </trkpt>
      <trkpt lat="47.547994" lon="7.913433">
        <ele>289.012931</ele>
        <time>2021-11-07T10:31:17.643Z</time>
      </trkpt>
      <trkpt lat="47.547423" lon="7.915080">
        <ele>288.691489</ele>
        <time>2021-11-07T10:31:35.131Z</time>
      </trkpt>
      <trkpt lat="47.547113" lon="7.915971">
        <ele>288.818185</ele>
        <time>2021-11-07T10:31:45.769Z</time>
      </trkpt>
      <trkpt lat="47.547091" lon="7.916039">
        <ele>288.845015</ele>
        <time>2021-11-07T10:31:46.819Z</time>
      </trkpt>
      <trkpt lat="47.547032" lon="7.916218">
        <ele>288.915891</ele>
        <time>2021-11-07T10:31:49.090Z</time>
      </trkpt>
      <trkpt lat="47.546821" lon="7.916867">
        <ele>289.172195</ele>
        <time>2021-11-07T10:31:57.505Z</time>
      </trkpt>
      <trkpt lat="47.546262" lon="7.919081">
        <ele>289.829921</ele>
        <time>2021-11-07T10:32:25.166Z</time>
      </trkpt>
      <trkpt lat="47.546128" lon="7.919617">
        <ele>289.950268</ele>
        <time>2021-11-07T10:32:30.594Z</time>
      </trkpt>
      <trkpt lat="47.545973" lon="7.920313">
        <ele>290.104582</ele>
        <time>2021-11-07T10:32:38.013Z</time>
      </trkpt>
      <trkpt lat="47.545913" lon="7.920765">
        <ele>290.431704</ele>
        <time>2021-11-07T10:32:42.771Z</time>
      </trkpt>
      <trkpt lat="47.545881" lon="7.921096">
        <ele>290.714337</ele>
        <time>2021-11-07T10:32:46.738Z</time>
      </trkpt>
      <trkpt lat="47.545810" lon="7.921755">
        <ele>291.278410</ele>
        <time>2021-11-07T10:32:55.348Z</time>
      </trkpt>
      <trkpt lat="47.545778" lon="7.921947">
        <ele>291.445572</ele>
        <time>2021-11-07T10:32:58.301Z</time>
      </trkpt>
      <trkpt lat="47.545714" lon="7.922249">
        <ele>291.713124</ele>
        <time>2021-11-07T10:33:02.155Z</time>
      </trkpt>
      <trkpt lat="47.545699" lon="7.922325">
        <ele>291.780053</ele>
        <time>2021-11-07T10:33:03.352Z</time>
      </trkpt>
      <trkpt lat="47.545690" lon="7.922369">
        <ele>291.818914</ele>
        <time>2021-11-07T10:33:04.424Z</time>
      </trkpt>
      <trkpt lat="47.545641" lon="7.922610">
        <ele>292.031661</ele>
        <time>2021-11-07T10:33:07.779Z</time>
      </trkpt>
      <trkpt lat="47.545587" lon="7.922895">
        <ele>292.281870</ele>
        <time>2021-11-07T10:33:12.611Z</time>
      </trkpt>
      <trkpt lat="47.545553" lon="7.923142">
        <ele>292.720696</ele>
        <time>2021-11-07T10:33:16.222Z</time>
      </trkpt>
      <trkpt lat="47.545536" lon="7.923407">
        <ele>293.378338</ele>
        <time>2021-11-07T10:33:21.098Z</time>
      </trkpt>
      <trkpt lat="47.545521" lon="7.923709">
        <ele>294.126458</ele>
        <time>2021-11-07T10:33:26.265Z</time>
      </trkpt>
      <trkpt lat="47.545481" lon="7.924396">
        <ele>295.830020</ele>
        <time>2021-11-07T10:33:40.868Z</time>
      </trkpt>
      <trkpt lat="47.545466" lon="7.924880">
        <ele>297.027021</ele>
        <time>2021-11-07T10:33:52.174Z</time>
      </trkpt>
      <trkpt lat="47.545446" lon="7.925350">
        <ele>298.190480</ele>
        <time>2021-11-07T10:34:02.549Z</time>
      </trkpt>
      <trkpt lat="47.545417" lon="7.925848">
        <ele>299.235609</ele>
        <time>2021-11-07T10:34:13.028Z</time>
      </trkpt>
      <trkpt lat="47.545409" lon="7.926773">
        <ele>300.587830</ele>
        <time>2021-11-07T10:34:30.229Z</time>
      </trkpt>
      <trkpt lat="47.545407" lon="7.927001">
        <ele>300.921136</ele>
        <time>2021-11-07T10:34:34.038Z</time>
      </trkpt>
      <trkpt lat="47.545406" lon="7.927306">
        <ele>301.366972</ele>
        <time>2021-11-07T10:34:38.643Z</time>
      </trkpt>
      <trkpt lat="47.545421" lon="7.927686">
        <ele>301.923382</ele>
        <time>2021-11-07T10:34:44.178Z</time>
      </trkpt>
      <trkpt lat="47.545475" lon="7.928419">
        <ele>302.756629</ele>
        <time>2021-11-07T10:34:53.496Z</time>
      </trkpt>
      <trkpt lat="47.545563" lon="7.929641">
        <ele>301.534762</ele>
        <time>2021-11-07T10:35:03.375Z</time>
      </trkpt>
      <trkpt lat="47.545661" lon="7.930955">
        <ele>300.220370</ele>
        <time>2021-11-07T10:35:12.771Z</time>
      </trkpt>
      <trkpt lat="47.545696" lon="7.931497">
        <ele>299.776290</ele>
        <time>2021-11-07T10:35:16.740Z</time>
      </trkpt>
      <trkpt lat="47.545721" lon="7.931992">
        <ele>299.373796</ele>
        <time>2021-11-07T10:35:20.530Z</time>
      </trkpt>
      <trkpt lat="47.545724" lon="7.932758">
        <ele>298.752673</ele>
        <time>2021-11-07T10:35:26.736Z</time>
      </trkpt>
      <trkpt lat="47.545702" lon="7.933290">
        <ele>298.320491</ele>
        <time>2021-11-07T10:35:31.379Z</time>
      </trkpt>
      <trkpt lat="47.545674" lon="7.933625">
        <ele>298.046781</ele>
        <time>2021-11-07T10:35:34.581Z</time>
      </trkpt>
      <trkpt lat="47.545561" lon="7.934395">
        <ele>298.581356</ele>
        <time>2021-11-07T10:35:43.305Z</time>
      </trkpt>
      <trkpt lat="47.545457" lon="7.935110">
        <ele>299.079423</ele>
        <time>2021-11-07T10:35:52.716Z</time>
      </trkpt>
      <trkpt lat="47.545074" lon="7.936484">
        <ele>300.263733</ele>
        <time>2021-11-07T10:36:14.246Z</time>
      </trkpt>
      <trkpt lat="47.544903" lon="7.936917">
        <ele>300.859191</ele>
        <time>2021-11-07T10:36:21.573Z</time>
      </trkpt>
      <trkpt lat="47.544705" lon="7.937395">
        <ele>301.524877</ele>
        <time>2021-11-07T10:36:29.759Z</time>
      </trkpt>
      <trkpt lat="47.544472" lon="7.937932">
        <ele>302.282609</ele>
        <time>2021-11-07T10:36:39.148Z</time>
      </trkpt>
      <trkpt lat="47.543826" lon="7.939433">
        <ele>304.331839</ele>
        <time>2021-11-07T10:37:06.002Z</time>
      </trkpt>
      <trkpt lat="47.543615" lon="7.940098">
        <ele>305.163526</ele>
        <time>2021-11-07T10:37:16.884Z</time>
      </trkpt>
      <trkpt lat="47.543435" lon="7.940670">
        <ele>305.877843</ele>
        <time>2021-11-07T10:37:25.961Z</time>
      </trkpt>
      <trkpt lat="47.543161" lon="7.942213">
        <ele>306.502226</ele>
        <time>2021-11-07T10:37:46.825Z</time>
      </trkpt>
      <trkpt lat="47.543007" lon="7.943867">
        <ele>306.324736</ele>
        <time>2021-11-07T10:38:02.394Z</time>
      </trkpt>
      <trkpt lat="47.542913" lon="7.945267">
        <ele>304.594392</ele>
        <time>2021-11-07T10:38:13.153Z</time>
      </trkpt>
      <trkpt lat="47.542872" lon="7.945781">
        <ele>303.957828</ele>
        <time>2021-11-07T10:38:16.750Z</time>
      </trkpt>
      <trkpt lat="47.542875" lon="7.946089">
        <ele>303.570232</ele>
        <time>2021-11-07T10:38:18.840Z</time>
      </trkpt>
      <trkpt lat="47.542902" lon="7.946514">
        <ele>302.903393</ele>
        <time>2021-11-07T10:38:21.720Z</time>
      </trkpt>
      <trkpt lat="47.542943" lon="7.946806">
        <ele>302.437488</ele>
        <time>2021-11-07T10:38:23.766Z</time>
      </trkpt>
      <trkpt lat="47.542974" lon="7.946965">
        <ele>302.178957</ele>
        <time>2021-11-07T10:38:24.977Z</time>
      </trkpt>
      <trkpt lat="47.542979" lon="7.946989">
        <ele>302.139721</ele>
        <time>2021-11-07T10:38:25.132Z</time>
      </trkpt>
      <trkpt lat="47.543007" lon="7.947104">
        <ele>301.948748</ele>
        <time>2021-11-07T10:38:25.981Z</time>
      </trkpt>
      <trkpt lat="47.543087" lon="7.947317">
        <ele>301.567979</ele>
        <time>2021-11-07T10:38:27.723Z</time>
      </trkpt>
      <trkpt lat="47.543191" lon="7.947615">
        <ele>301.043933</ele>
        <time>2021-11-07T10:38:30.165Z</time>
      </trkpt>
      <trkpt lat="47.543242" lon="7.947745">
        <ele>300.809053</ele>
        <time>2021-11-07T10:38:31.294Z</time>
      </trkpt>
      <trkpt lat="47.543273" lon="7.947816">
        <ele>300.676964</ele>
        <time>2021-11-07T10:38:31.922Z</time>
      </trkpt>
      <trkpt lat="47.543358" lon="7.947967">
        <ele>300.369831</ele>
        <time>2021-11-07T10:38:33.364Z</time>
      </trkpt>
      <trkpt lat="47.543455" lon="7.948127">
        <ele>300.033890</ele>
        <time>2021-11-07T10:38:35.032Z</time>
      </trkpt>
      <trkpt lat="47.543532" lon="7.948214">
        <ele>299.809789</ele>
        <time>2021-11-07T10:38:36.112Z</time>
      </trkpt>
      <trkpt lat="47.543579" lon="7.948287">
        <ele>299.652203</ele>
        <time>2021-11-07T10:38:36.876Z</time>
      </trkpt>
      <trkpt lat="47.543760" lon="7.948548">
        <ele>299.410910</ele>
        <time>2021-11-07T10:38:39.765Z</time>
      </trkpt>
      <trkpt lat="47.543864" lon="7.948694">
        <ele>299.377739</ele>
        <time>2021-11-07T10:38:41.436Z</time>
      </trkpt>
      <trkpt lat="47.544239" lon="7.949202">
        <ele>299.260096</ele>
        <time>2021-11-07T10:38:48.798Z</time>
      </trkpt>
      <trkpt lat="47.544521" lon="7.949558">
        <ele>299.174321</ele>
        <time>2021-11-07T10:38:54.972Z</time>
      </trkpt>
      <trkpt lat="47.544901" lon="7.950044">
        <ele>299.058097</ele>
        <time>2021-11-07T10:39:03.771Z</time>
      </trkpt>
      <trkpt lat="47.545166" lon="7.950366">
        <ele>298.550082</ele>
        <time>2021-11-07T10:39:09.012Z</time>
      </trkpt>
      <trkpt lat="47.545434" lon="7.950668">
        <ele>297.852227</ele>
        <time>2021-11-07T10:39:13.252Z</time>
      </trkpt>
      <trkpt lat="47.545542" lon="7.950842">
        <ele>297.521541</ele>
        <time>2021-11-07T10:39:15.032Z</time>
      </trkpt>
      <trkpt lat="47.545667" lon="7.950979">
        <ele>297.199289</ele>
        <time>2021-11-07T10:39:16.801Z</time>
      </trkpt>
      <trkpt lat="47.545737" lon="7.951055">
        <ele>297.019425</ele>
        <time>2021-11-07T10:39:17.732Z</time>
      </trkpt>
      <trkpt lat="47.545759" lon="7.950982">
        <ele>296.907585</ele>
        <time>2021-11-07T10:39:18.298Z</time>
      </trkpt>
      <trkpt lat="47.545852" lon="7.950808">
        <ele>296.597099</ele>
        <time>2021-11-07T10:39:19.870Z</time>
      </trkpt>
      <trkpt lat="47.545858" lon="7.950769">
        <ele>296.541140</ele>
        <time>2021-11-07T10:39:20.150Z</time>
      </trkpt>
      <trkpt lat="47.545875" lon="7.950668">
        <ele>296.395520</ele>
        <time>2021-11-07T10:39:20.893Z</time>
      </trkpt>
      <trkpt lat="47.545948" lon="7.950297">
        <ele>295.854910</ele>
        <time>2021-11-07T10:39:23.492Z</time>
      </trkpt>
      <trkpt lat="47.545949" lon="7.950185">
        <ele>295.698214</ele>
        <time>2021-11-07T10:39:24.251Z</time>
      </trkpt>
      <trkpt lat="47.546159" lon="7.949303">
        <ele>293.750687</ele>
        <time>2021-11-07T10:39:30.274Z</time>
      </trkpt>
      <trkpt lat="47.546572" lon="7.947545">
        <ele>289.327900</ele>
        <time>2021-11-07T10:39:42.750Z</time>
      </trkpt>
      <trkpt lat="47.546664" lon="7.947227">
        <ele>288.831774</ele>
        <time>2021-11-07T10:39:45.266Z</time>
      </trkpt>
      <trkpt lat="47.546749" lon="7.946929">
        <ele>288.598673</ele>
        <time>2021-11-07T10:39:47.660Z</time>
      </trkpt>
      <trkpt lat="47.546772" lon="7.946847">
        <ele>288.534692</ele>
        <time>2021-11-07T10:39:48.328Z</time>
      </trkpt>
      <trkpt lat="47.546815" lon="7.946690">
        <ele>288.412612</ele>
        <time>2021-11-07T10:39:49.613Z</time>
      </trkpt>
      <trkpt lat="47.546959" lon="7.946071">
        <ele>287.940864</ele>
        <time>2021-11-07T10:39:54.921Z</time>
      </trkpt>
      <trkpt lat="47.546966" lon="7.946039">
        <ele>287.916627</ele>
        <time>2021-11-07T10:39:55.291Z</time>
      </trkpt>
      <trkpt lat="47.547022" lon="7.945790">
        <ele>287.727521</ele>
        <time>2021-11-07T10:39:57.765Z</time>
      </trkpt>
      <trkpt lat="47.547075" lon="7.945550">
        <ele>287.545576</ele>
        <time>2021-11-07T10:40:00.113Z</time>
      </trkpt>
      <trkpt lat="47.547150" lon="7.945242">
        <ele>287.309657</ele>
        <time>2021-11-07T10:40:03.882Z</time>
      </trkpt>
      <trkpt lat="47.547161" lon="7.945196">
        <ele>287.274495</ele>
        <time>2021-11-07T10:40:04.360Z</time>
      </trkpt>
      <trkpt lat="47.547282" lon="7.944699">
        <ele>286.988379</ele>
        <time>2021-11-07T10:40:10.008Z</time>
      </trkpt>
      <trkpt lat="47.547318" lon="7.944515">
        <ele>286.932013</ele>
        <time>2021-11-07T10:40:11.740Z</time>
      </trkpt>
      <trkpt lat="47.547344" lon="7.944382">
        <ele>286.891274</ele>
        <time>2021-11-07T10:40:13.075Z</time>
      </trkpt>
      <trkpt lat="47.547354" lon="7.944331">
        <ele>286.875648</ele>
        <time>2021-11-07T10:40:13.590Z</time>
      </trkpt>
      <trkpt lat="47.547734" lon="7.942722">
        <ele>286.374104</ele>
        <time>2021-11-07T10:40:28.564Z</time>
      </trkpt>
      <trkpt lat="47.547790" lon="7.942490">
        <ele>286.301611</ele>
        <time>2021-11-07T10:40:30.599Z</time>
      </trkpt>
      <trkpt lat="47.548087" lon="7.941446">
        <ele>285.688637</ele>
        <time>2021-11-07T10:40:40.735Z</time>
      </trkpt>
      <trkpt lat="47.548484" lon="7.940313">
        <ele>284.964503</ele>
        <time>2021-11-07T10:40:51.139Z</time>
      </trkpt>
      <trkpt lat="47.548550" lon="7.940126">
        <ele>284.844802</ele>
        <time>2021-11-07T10:40:52.894Z</time>
      </trkpt>
      <trkpt lat="47.548587" lon="7.940118">
        <ele>284.813377</ele>
        <time>2021-11-07T10:40:53.392Z</time>
      </trkpt>
      <trkpt lat="47.548632" lon="7.940087">
        <ele>284.771671</ele>
        <time>2021-11-07T10:40:53.996Z</time>
      </trkpt>
      <trkpt lat="47.548653" lon="7.940052">
        <ele>284.747870</ele>
        <time>2021-11-07T10:40:54.409Z</time>
      </trkpt>
      <trkpt lat="47.548676" lon="7.939951">
        <ele>284.700335</ele>
        <time>2021-11-07T10:40:55.299Z</time>
      </trkpt>
      <trkpt lat="47.548673" lon="7.939890">
        <ele>284.673061</ele>
        <time>2021-11-07T10:40:55.817Z</time>
      </trkpt>
      <trkpt lat="47.548643" lon="7.939810">
        <ele>284.632249</ele>
        <time>2021-11-07T10:40:56.556Z</time>
      </trkpt>
      <trkpt lat="47.548655" lon="7.939712">
        <ele>284.587833</ele>
        <time>2021-11-07T10:40:57.419Z</time>
      </trkpt>
      <trkpt lat="47.548592" lon="7.939666">
        <ele>284.541429</ele>
        <time>2021-11-07T10:41:02.302Z</time>
      </trkpt>
      <trkpt lat="47.548592" lon="7.939666">
        <ele>284.541429</ele>
        <time>2021-11-07T10:41:02.317Z</time>
      </trkpt>
      <trkpt lat="47.548585" lon="7.939688">
        <ele>284.530582</ele>
        <time>2021-11-07T10:41:02.526Z</time>
      </trkpt>
      <trkpt lat="47.548563" lon="7.939753">
        <ele>284.498156</ele>
        <time>2021-11-07T10:41:03.161Z</time>
      </trkpt>
      <trkpt lat="47.548509" lon="7.939765">
        <ele>284.462079</ele>
        <time>2021-11-07T10:41:03.834Z</time>
      </trkpt>
      <trkpt lat="47.548230" lon="7.939581">
        <ele>284.260307</ele>
        <time>2021-11-07T10:41:07.717Z</time>
      </trkpt>
      <trkpt lat="47.548150" lon="7.939478">
        <ele>284.190282</ele>
        <time>2021-11-07T10:41:09.063Z</time>
      </trkpt>
      <trkpt lat="47.548129" lon="7.939460">
        <ele>284.174253</ele>
        <time>2021-11-07T10:41:09.354Z</time>
      </trkpt>
      <trkpt lat="47.548085" lon="7.939422">
        <ele>284.140603</ele>
        <time>2021-11-07T10:41:09.994Z</time>
      </trkpt>
      <trkpt lat="47.547474" lon="7.938844">
        <ele>283.661644</ele>
        <time>2021-11-07T10:41:19.639Z</time>
      </trkpt>
      <trkpt lat="47.547174" lon="7.938475">
        <ele>283.562506</ele>
        <time>2021-11-07T10:41:24.724Z</time>
      </trkpt>
      <trkpt lat="47.547115" lon="7.938377">
        <ele>283.559972</ele>
        <time>2021-11-07T10:41:25.895Z</time>
      </trkpt>
      <trkpt lat="47.547044" lon="7.938237">
        <ele>283.556592</ele>
        <time>2021-11-07T10:41:27.579Z</time>
      </trkpt>
      <trkpt lat="47.546969" lon="7.938023">
        <ele>283.551938</ele>
        <time>2021-11-07T10:41:29.982Z</time>
      </trkpt>
      <trkpt lat="47.546915" lon="7.937800">
        <ele>283.547365</ele>
        <time>2021-11-07T10:41:32.363Z</time>
      </trkpt>
      <trkpt lat="47.546890" lon="7.937602">
        <ele>283.543477</ele>
        <time>2021-11-07T10:41:34.549Z</time>
      </trkpt>
      <trkpt lat="47.546895" lon="7.937196">
        <ele>283.535640</ele>
        <time>2021-11-07T10:41:38.635Z</time>
      </trkpt>
      <trkpt lat="47.547020" lon="7.936617">
        <ele>283.523907</ele>
        <time>2021-11-07T10:41:44.951Z</time>
      </trkpt>
      <trkpt lat="47.547523" lon="7.935115">
        <ele>283.914199</ele>
        <time>2021-11-07T10:42:03.044Z</time>
      </trkpt>
      <trkpt lat="47.547539" lon="7.935068">
        <ele>283.929266</ele>
        <time>2021-11-07T10:42:03.609Z</time>
      </trkpt>
      <trkpt lat="47.547663" lon="7.934665">
        <ele>284.056040</ele>
        <time>2021-11-07T10:42:08.563Z</time>
      </trkpt>
      <trkpt lat="47.547956" lon="7.933604">
        <ele>284.457978</ele>
        <time>2021-11-07T10:42:21.912Z</time>
      </trkpt>
      <trkpt lat="47.548144" lon="7.932614">
        <ele>284.962928</ele>
        <time>2021-11-07T10:42:34.838Z</time>
      </trkpt>
      <trkpt lat="47.548252" lon="7.930989">
        <ele>285.813061</ele>
        <time>2021-11-07T10:42:54.337Z</time>
      </trkpt>
      <trkpt lat="47.548241" lon="7.930335">
        <ele>286.223001</ele>
        <time>2021-11-07T10:43:01.536Z</time>
      </trkpt>
      <trkpt lat="47.548236" lon="7.930144">
        <ele>286.342777</ele>
        <time>2021-11-07T10:43:03.515Z</time>
      </trkpt>
      <trkpt lat="47.548226" lon="7.929841">
        <ele>286.532871</ele>
        <time>2021-11-07T10:43:07.503Z</time>
      </trkpt>
      <trkpt lat="47.548192" lon="7.928866">
        <ele>287.144646</ele>
        <time>2021-11-07T10:43:20.137Z</time>
      </trkpt>
      <trkpt lat="47.548186" lon="7.928343">
        <ele>287.700996</ele>
        <time>2021-11-07T10:43:27.641Z</time>
      </trkpt>
      <trkpt lat="47.548228" lon="7.928033">
        <ele>288.111508</ele>
        <time>2021-11-07T10:43:31.714Z</time>
      </trkpt>
      <trkpt lat="47.548275" lon="7.927880">
        <ele>288.329758</ele>
        <time>2021-11-07T10:43:34.034Z</time>
      </trkpt>
      <trkpt lat="47.548298" lon="7.927820">
        <ele>288.419344</ele>
        <time>2021-11-07T10:43:35.771Z</time>
      </trkpt>
      <trkpt lat="47.548398" lon="7.927692">
        <ele>288.673545</ele>
        <time>2021-11-07T10:43:38.455Z</time>
      </trkpt>
      <trkpt lat="47.548534" lon="7.927518">
        <ele>289.019190</ele>
        <time>2021-11-07T10:43:42.164Z</time>
      </trkpt>
      <trkpt lat="47.548777" lon="7.927430">
        <ele>289.500372</ele>
        <time>2021-11-07T10:43:48.168Z</time>
      </trkpt>
      <trkpt lat="47.548912" lon="7.927437">
        <ele>289.760210</ele>
        <time>2021-11-07T10:43:51.793Z</time>
      </trkpt>
      <trkpt lat="47.549059" lon="7.927444">
        <ele>290.043117</ele>
        <time>2021-11-07T10:43:55.458Z</time>
      </trkpt>
      <trkpt lat="47.549697" lon="7.927581">
        <ele>291.097205</ele>
        <time>2021-11-07T10:44:11.072Z</time>
      </trkpt>
      <trkpt lat="47.550041" lon="7.927651">
        <ele>291.544980</ele>
        <time>2021-11-07T10:44:18.629Z</time>
      </trkpt>
      <trkpt lat="47.550381" lon="7.927709">
        <ele>291.986329</ele>
        <time>2021-11-07T10:44:25.775Z</time>
      </trkpt>
      <trkpt lat="47.550481" lon="7.927724">
        <ele>292.115945</ele>
        <time>2021-11-07T10:44:27.714Z</time>
      </trkpt>
      <trkpt lat="47.550669" lon="7.927757">
        <ele>292.360079</ele>
        <time>2021-11-07T10:44:30.932Z</time>
      </trkpt>
      <trkpt lat="47.551076" lon="7.927850">
        <ele>292.891138</ele>
        <time>2021-11-07T10:44:37.912Z</time>
      </trkpt>
      <trkpt lat="47.551163" lon="7.927871">
        <ele>293.004810</ele>
        <time>2021-11-07T10:44:39.305Z</time>
      </trkpt>
      <trkpt lat="47.551192" lon="7.927575">
        <ele>293.096989</ele>
        <time>2021-11-07T10:44:42.666Z</time>
      </trkpt>
      <trkpt lat="47.551183" lon="7.927256">
        <ele>293.168774</ele>
        <time>2021-11-07T10:44:46.181Z</time>
      </trkpt>
      <trkpt lat="47.551209" lon="7.927048">
        <ele>293.216336</ele>
        <time>2021-11-07T10:44:48.448Z</time>
      </trkpt>
      <trkpt lat="47.551236" lon="7.926890">
        <ele>293.252981</ele>
        <time>2021-11-07T10:44:50.318Z</time>
      </trkpt>
      <trkpt lat="47.551262" lon="7.926787">
        <ele>293.277706</ele>
        <time>2021-11-07T10:44:51.418Z</time>
      </trkpt>
      <trkpt lat="47.551300" lon="7.926708">
        <ele>293.299517</ele>
        <time>2021-11-07T10:44:52.423Z</time>
      </trkpt>
      <trkpt lat="47.551345" lon="7.926636">
        <ele>293.321580</ele>
        <time>2021-11-07T10:44:53.433Z</time>
      </trkpt>
      <trkpt lat="47.551423" lon="7.926561">
        <ele>293.352556</ele>
        <time>2021-11-07T10:44:55.056Z</time>
      </trkpt>
      <trkpt lat="47.551676" lon="7.926477">
        <ele>293.438926</ele>
        <time>2021-11-07T10:44:58.989Z</time>
      </trkpt>
      <trkpt lat="47.551788" lon="7.926512">
        <ele>293.477057</ele>
        <time>2021-11-07T10:45:00.993Z</time>
      </trkpt>
      <trkpt lat="47.552250" lon="7.926787">
        <ele>293.642307</ele>
        <time>2021-11-07T10:45:08.748Z</time>
      </trkpt>
      <trkpt lat="47.552388" lon="7.926860">
        <ele>293.685528</ele>
        <time>2021-11-07T10:45:11.176Z</time>
      </trkpt>
      <trkpt lat="47.552729" lon="7.927061">
        <ele>293.793779</ele>
        <time>2021-11-07T10:45:17.210Z</time>
      </trkpt>
      <trkpt lat="47.552928" lon="7.927209">
        <ele>293.859457</ele>
        <time>2021-11-07T10:45:20.863Z</time>
      </trkpt>
      <trkpt lat="47.553166" lon="7.927389">
        <ele>293.938275</ele>
        <time>2021-11-07T10:45:25.445Z</time>
      </trkpt>
      <trkpt lat="47.553221" lon="7.927438">
        <ele>293.957205</ele>
        <time>2021-11-07T10:45:26.399Z</time>
      </trkpt>
      <trkpt lat="47.553257" lon="7.927322">
        <ele>293.982622</ele>
        <time>2021-11-07T10:45:27.847Z</time>
      </trkpt>
      <trkpt lat="47.553294" lon="7.927186">
        <ele>294.011813</ele>
        <time>2021-11-07T10:45:29.486Z</time>
      </trkpt>
      <trkpt lat="47.553381" lon="7.926895">
        <ele>294.075173</ele>
        <time>2021-11-07T10:45:32.819Z</time>
      </trkpt>
      <trkpt lat="47.553408" lon="7.926803">
        <ele>294.095145</ele>
        <time>2021-11-07T10:45:33.933Z</time>
      </trkpt>
      <trkpt lat="47.553539" lon="7.926451">
        <ele>294.166392</ele>
        <time>2021-11-07T10:45:38.061Z</time>
      </trkpt>
      <trkpt lat="47.553834" lon="7.925632">
        <ele>294.120592</ele>
        <time>2021-11-07T10:45:47.201Z</time>
      </trkpt>
      <trkpt lat="47.554226" lon="7.924713">
        <ele>294.066958</ele>
        <time>2021-11-07T10:45:57.719Z</time>
      </trkpt>
      <trkpt lat="47.554705" lon="7.923835">
        <ele>293.976228</ele>
        <time>2021-11-07T10:46:08.543Z</time>
      </trkpt>
      <trkpt lat="47.555272" lon="7.922934">
        <ele>293.831614</ele>
        <time>2021-11-07T10:46:20.150Z</time>
      </trkpt>
      <trkpt lat="47.556542" lon="7.921551">
        <ele>293.642263</ele>
        <time>2021-11-07T10:46:42.864Z</time>
      </trkpt>
      <trkpt lat="47.557147" lon="7.921064">
        <ele>293.583555</ele>
        <time>2021-11-07T10:46:53.028Z</time>
      </trkpt>
      <trkpt lat="47.558098" lon="7.920440">
        <ele>293.291454</ele>
        <time>2021-11-07T10:47:08.216Z</time>
      </trkpt>
      <trkpt lat="47.561244" lon="7.918902">
        <ele>291.281116</ele>
        <time>2021-11-07T10:47:51.659Z</time>
      </trkpt>
      <trkpt lat="47.561405" lon="7.918835">
        <ele>291.081955</ele>
        <time>2021-11-07T10:47:53.570Z</time>
      </trkpt>
      <trkpt lat="47.561792" lon="7.918633">
        <ele>290.593302</ele>
        <time>2021-11-07T10:47:58.256Z</time>
      </trkpt>
      <trkpt lat="47.562098" lon="7.918473">
        <ele>290.206851</ele>
        <time>2021-11-07T10:48:01.990Z</time>
      </trkpt>
      <trkpt lat="47.562192" lon="7.918413">
        <ele>290.084958</ele>
        <time>2021-11-07T10:48:03.146Z</time>
      </trkpt>
      <trkpt lat="47.562330" lon="7.918325">
        <ele>289.906037</ele>
        <time>2021-11-07T10:48:04.901Z</time>
      </trkpt>
      <trkpt lat="47.562491" lon="7.918206">
        <ele>289.742253</ele>
        <time>2021-11-07T10:48:06.940Z</time>
      </trkpt>
      <trkpt lat="47.562766" lon="7.918001">
        <ele>289.488636</ele>
        <time>2021-11-07T10:48:10.524Z</time>
      </trkpt>
      <trkpt lat="47.562783" lon="7.917983">
        <ele>289.471422</ele>
        <time>2021-11-07T10:48:10.743Z</time>
      </trkpt>
      <trkpt lat="47.563304" lon="7.917434">
        <ele>288.944732</ele>
        <time>2021-11-07T10:48:18.487Z</time>
      </trkpt>
      <trkpt lat="47.563485" lon="7.917258">
        <ele>288.766376</ele>
        <time>2021-11-07T10:48:21.341Z</time>
      </trkpt>
      <trkpt lat="47.564482" lon="7.916219">
        <ele>288.492344</ele>
        <time>2021-11-07T10:48:39.722Z</time>
      </trkpt>
      <trkpt lat="47.564500" lon="7.916200">
        <ele>288.495877</ele>
        <time>2021-11-07T10:48:40.076Z</time>
      </trkpt>
      <trkpt lat="47.564526" lon="7.916174">
        <ele>288.500891</ele>
        <time>2021-11-07T10:48:40.563Z</time>
      </trkpt>
      <trkpt lat="47.564899" lon="7.915798">
        <ele>288.573006</ele>
        <time>2021-11-07T10:48:47.756Z</time>
      </trkpt>
      <trkpt lat="47.565627" lon="7.915066">
        <ele>288.650081</ele>
        <time>2021-11-07T10:49:01.648Z</time>
      </trkpt>
      <trkpt lat="47.565672" lon="7.915025">
        <ele>288.648285</ele>
        <time>2021-11-07T10:49:02.486Z</time>
      </trkpt>
      <trkpt lat="47.565748" lon="7.914949">
        <ele>288.645167</ele>
        <time>2021-11-07T10:49:03.941Z</time>
      </trkpt>
      <trkpt lat="47.565830" lon="7.914880">
        <ele>288.641961</ele>
        <time>2021-11-07T10:49:05.448Z</time>
      </trkpt>
      <trkpt lat="47.565995" lon="7.914739">
        <ele>288.635484</ele>
        <time>2021-11-07T10:49:08.373Z</time>
      </trkpt>
      <trkpt lat="47.566025" lon="7.914720">
        <ele>288.634375</ele>
        <time>2021-11-07T10:49:08.803Z</time>
      </trkpt>
      <trkpt lat="47.566096" lon="7.914676">
        <ele>288.631758</ele>
        <time>2021-11-07T10:49:09.985Z</time>
      </trkpt>
      <trkpt lat="47.566250" lon="7.914580">
        <ele>288.626077</ele>
        <time>2021-11-07T10:49:12.504Z</time>
      </trkpt>
      <trkpt lat="47.566474" lon="7.914468">
        <ele>288.618038</ele>
        <time>2021-11-07T10:49:15.816Z</time>
      </trkpt>
      <trkpt lat="47.566489" lon="7.914461">
        <ele>288.617503</ele>
        <time>2021-11-07T10:49:16.055Z</time>
      </trkpt>
      <trkpt lat="47.566534" lon="7.914439">
        <ele>288.615892</ele>
        <time>2021-11-07T10:49:16.732Z</time>
      </trkpt>
      <trkpt lat="47.566601" lon="7.914411">
        <ele>288.613524</ele>
        <time>2021-11-07T10:49:17.747Z</time>
      </trkpt>
      <trkpt lat="47.566984" lon="7.914229">
        <ele>288.597015</ele>
        <time>2021-11-07T10:49:23.281Z</time>
      </trkpt>
      <trkpt lat="47.567335" lon="7.914048">
        <ele>288.421612</ele>
        <time>2021-11-07T10:49:28.211Z</time>
      </trkpt>
      <trkpt lat="47.567374" lon="7.914028">
        <ele>288.402134</ele>
        <time>2021-11-07T10:49:28.691Z</time>
      </trkpt>
      <trkpt lat="47.568301" lon="7.913554">
        <ele>287.939311</ele>
        <time>2021-11-07T10:49:41.693Z</time>
      </trkpt>
      <trkpt lat="47.568566" lon="7.913414">
        <ele>287.806530</ele>
        <time>2021-11-07T10:49:45.399Z</time>
      </trkpt>
      <trkpt lat="47.569155" lon="7.913298">
        <ele>287.727608</ele>
        <time>2021-11-07T10:49:53.439Z</time>
      </trkpt>
      <trkpt lat="47.569682" lon="7.913220">
        <ele>287.701451</ele>
        <time>2021-11-07T10:50:01.009Z</time>
      </trkpt>
      <trkpt lat="47.571638" lon="7.913041">
        <ele>287.714343</ele>
        <time>2021-11-07T10:50:31.585Z</time>
      </trkpt>
      <trkpt lat="47.571807" lon="7.913030">
        <ele>287.721879</ele>
        <time>2021-11-07T10:50:34.236Z</time>
      </trkpt>
      <trkpt lat="47.571801" lon="7.912878">
        <ele>287.726456</ele>
        <time>2021-11-07T10:50:35.755Z</time>
      </trkpt>
      <trkpt lat="47.571815" lon="7.912822">
        <ele>287.728251</ele>
        <time>2021-11-07T10:50:36.342Z</time>
      </trkpt>
      <trkpt lat="47.571842" lon="7.912780">
        <ele>287.729994</ele>
        <time>2021-11-07T10:50:36.824Z</time>
      </trkpt>
      <trkpt lat="47.572195" lon="7.912650">
        <ele>287.693061</ele>
        <time>2021-11-07T10:50:41.993Z</time>
      </trkpt>
      <trkpt lat="47.572843" lon="7.912399">
        <ele>287.299060</ele>
        <time>2021-11-07T10:50:51.045Z</time>
      </trkpt>
      <trkpt lat="47.572921" lon="7.912369">
        <ele>287.251655</ele>
        <time>2021-11-07T10:50:52.002Z</time>
      </trkpt>
      <trkpt lat="47.573759" lon="7.912034">
        <ele>286.741070</ele>
        <time>2021-11-07T10:51:03.003Z</time>
      </trkpt>
      <trkpt lat="47.573998" lon="7.911915">
        <ele>286.591720</ele>
        <time>2021-11-07T10:51:06.120Z</time>
      </trkpt>
      <trkpt lat="47.574566" lon="7.911447">
        <ele>286.205122</ele>
        <time>2021-11-07T10:51:14.445Z</time>
      </trkpt>
      <trkpt lat="47.574901" lon="7.911251">
        <ele>285.990867</ele>
        <time>2021-11-07T10:51:19.131Z</time>
      </trkpt>
      <trkpt lat="47.575508" lon="7.910912">
        <ele>285.613474</ele>
        <time>2021-11-07T10:51:27.759Z</time>
      </trkpt>
      <trkpt lat="47.575539" lon="7.910898">
        <ele>285.611667</ele>
        <time>2021-11-07T10:51:28.269Z</time>
      </trkpt>
      <trkpt lat="47.575854" lon="7.910743">
        <ele>285.593164</ele>
        <time>2021-11-07T10:51:32.775Z</time>
      </trkpt>
      <trkpt lat="47.576932" lon="7.910134">
        <ele>285.528849</ele>
        <time>2021-11-07T10:51:49.761Z</time>
      </trkpt>
      <trkpt lat="47.577424" lon="7.909886">
        <ele>285.639642</ele>
        <time>2021-11-07T10:51:57.916Z</time>
      </trkpt>
      <trkpt lat="47.577771" lon="7.909710">
        <ele>285.820435</ele>
        <time>2021-11-07T10:52:04.008Z</time>
      </trkpt>
      <trkpt lat="47.578895" lon="7.909087">
        <ele>286.401449</ele>
        <time>2021-11-07T10:52:24.698Z</time>
      </trkpt>
      <trkpt lat="47.579056" lon="7.908962">
        <ele>286.407133</ele>
        <time>2021-11-07T10:52:28.162Z</time>
      </trkpt>
      <trkpt lat="47.579708" lon="7.908314">
        <ele>286.431682</ele>
        <time>2021-11-07T10:52:41.076Z</time>
      </trkpt>
      <trkpt lat="47.580105" lon="7.908168">
        <ele>286.444475</ele>
        <time>2021-11-07T10:52:46.825Z</time>
      </trkpt>
      <trkpt lat="47.580194" lon="7.908192">
        <ele>286.447304</ele>
        <time>2021-11-07T10:52:47.989Z</time>
      </trkpt>
      <trkpt lat="47.580422" lon="7.908273">
        <ele>286.454636</ele>
        <time>2021-11-07T10:52:51.119Z</time>
      </trkpt>
      <trkpt lat="47.580470" lon="7.908164">
        <ele>286.443669</ele>
        <time>2021-11-07T10:52:52.108Z</time>
      </trkpt>
      <trkpt lat="47.580552" lon="7.908081">
        <ele>286.339133</ele>
        <time>2021-11-07T10:52:53.475Z</time>
      </trkpt>
      <trkpt lat="47.581568" lon="7.907612">
        <ele>285.218805</ele>
        <time>2021-11-07T10:53:06.333Z</time>
      </trkpt>
      <trkpt lat="47.581793" lon="7.907472">
        <ele>284.961901</ele>
        <time>2021-11-07T10:53:09.104Z</time>
      </trkpt>
      <trkpt lat="47.582248" lon="7.907090">
        <ele>284.598841</ele>
        <time>2021-11-07T10:53:15.317Z</time>
      </trkpt>
      <trkpt lat="47.582657" lon="7.906618">
        <ele>284.726374</ele>
        <time>2021-11-07T10:53:21.951Z</time>
      </trkpt>
      <trkpt lat="47.582951" lon="7.906415">
        <ele>284.806175</ele>
        <time>2021-11-07T10:53:26.879Z</time>
      </trkpt>
      <trkpt lat="47.583077" lon="7.906399">
        <ele>284.837292</ele>
        <time>2021-11-07T10:53:28.758Z</time>
      </trkpt>
      <trkpt lat="47.583245" lon="7.906443">
        <ele>284.879269</ele>
        <time>2021-11-07T10:53:32.171Z</time>
      </trkpt>
      <trkpt lat="47.583451" lon="7.906619">
        <ele>284.937771</ele>
        <time>2021-11-07T10:53:36.713Z</time>
      </trkpt>
      <trkpt lat="47.583711" lon="7.906911">
        <ele>285.124964</ele>
        <time>2021-11-07T10:53:43.455Z</time>
      </trkpt>
      <trkpt lat="47.583887" lon="7.907113">
        <ele>285.662393</ele>
        <time>2021-11-07T10:53:48.438Z</time>
      </trkpt>
      <trkpt lat="47.584719" lon="7.908091">
        <ele>288.226146</ele>
        <time>2021-11-07T10:54:14.060Z</time>
      </trkpt>
      <trkpt lat="47.585084" lon="7.908692">
        <ele>289.664633</ele>
        <time>2021-11-07T10:54:28.746Z</time>
      </trkpt>
      <trkpt lat="47.585149" lon="7.908804">
        <ele>290.055508</ele>
        <time>2021-11-07T10:54:31.702Z</time>
      </trkpt>
      <trkpt lat="47.585222" lon="7.908901">
        <ele>290.439988</ele>
        <time>2021-11-07T10:54:34.864Z</time>
      </trkpt>
      <trkpt lat="47.585337" lon="7.909031">
        <ele>291.007188</ele>
        <time>2021-11-07T10:54:39.043Z</time>
      </trkpt>
      <trkpt lat="47.585078" lon="7.909509">
        <ele>292.629209</ele>
        <time>2021-11-07T10:54:51.081Z</time>
      </trkpt>
      <trkpt lat="47.585045" lon="7.909674">
        <ele>293.084495</ele>
        <time>2021-11-07T10:54:54.494Z</time>
      </trkpt>
      <trkpt lat="47.585051" lon="7.909751">
        <ele>293.289551</ele>
        <time>2021-11-07T10:54:56.350Z</time>
      </trkpt>
      <trkpt lat="47.585066" lon="7.909809">
        <ele>293.453880</ele>
        <time>2021-11-07T10:54:57.631Z</time>
      </trkpt>
      <trkpt lat="47.585093" lon="7.909869">
        <ele>293.644691</ele>
        <time>2021-11-07T10:54:58.963Z</time>
      </trkpt>
      <trkpt lat="47.585157" lon="7.909965">
        <ele>294.001773</ele>
        <time>2021-11-07T10:55:01.339Z</time>
      </trkpt>
      <trkpt lat="47.585271" lon="7.910136">
        <ele>294.637824</ele>
        <time>2021-11-07T10:55:06.311Z</time>
      </trkpt>
      <trkpt lat="47.585430" lon="7.910346">
        <ele>295.473008</ele>
        <time>2021-11-07T10:55:13.233Z</time>
      </trkpt>
      <trkpt lat="47.585610" lon="7.910640">
        <ele>296.527354</ele>
        <time>2021-11-07T10:55:22.862Z</time>
      </trkpt>
      <trkpt lat="47.586028" lon="7.911561">
        <ele>299.560755</ele>
        <time>2021-11-07T10:55:48.941Z</time>
      </trkpt>
      <trkpt lat="47.586263" lon="7.911881">
        <ele>300.853436</ele>
        <time>2021-11-07T10:55:59.198Z</time>
      </trkpt>
      <trkpt lat="47.586433" lon="7.912047">
        <ele>301.678117</ele>
        <time>2021-11-07T10:56:05.776Z</time>
      </trkpt>
      <trkpt lat="47.586622" lon="7.912140">
        <ele>302.484887</ele>
        <time>2021-11-07T10:56:11.497Z</time>
      </trkpt>
      <trkpt lat="47.586917" lon="7.912301">
        <ele>303.711539</ele>
        <time>2021-11-07T10:56:19.354Z</time>
      </trkpt>
      <trkpt lat="47.587725" lon="7.912508">
        <ele>304.747688</ele>
        <time>2021-11-07T10:56:38.050Z</time>
      </trkpt>
      <trkpt lat="47.587897" lon="7.912517">
        <ele>304.965169</ele>
        <time>2021-11-07T10:56:41.606Z</time>
      </trkpt>
      <trkpt lat="47.588907" lon="7.912607">
        <ele>306.025521</ele>
        <time>2021-11-07T10:56:57.063Z</time>
      </trkpt>
      <trkpt lat="47.589326" lon="7.912720">
        <ele>306.145192</ele>
        <time>2021-11-07T10:57:03.402Z</time>
      </trkpt>
      <trkpt lat="47.589873" lon="7.912855">
        <ele>306.301013</ele>
        <time>2021-11-07T10:57:11.901Z</time>
      </trkpt>
      <trkpt lat="47.590231" lon="7.912830">
        <ele>306.401722</ele>
        <time>2021-11-07T10:57:17.625Z</time>
      </trkpt>
      <trkpt lat="47.590570" lon="7.912784">
        <ele>306.579533</ele>
        <time>2021-11-07T10:57:23.746Z</time>
      </trkpt>
      <trkpt lat="47.591044" lon="7.912710">
        <ele>307.094921</ele>
        <time>2021-11-07T10:57:32.820Z</time>
      </trkpt>
      <trkpt lat="47.591348" lon="7.912662">
        <ele>307.425506</ele>
        <time>2021-11-07T10:57:38.901Z</time>
      </trkpt>
      <trkpt lat="47.591443" lon="7.912678">
        <ele>307.528894</ele>
        <time>2021-11-07T10:57:40.480Z</time>
      </trkpt>
      <trkpt lat="47.591605" lon="7.912829">
        <ele>307.735807</ele>
        <time>2021-11-07T10:57:44.723Z</time>
      </trkpt>
      <trkpt lat="47.591714" lon="7.913064">
        <ele>307.943803</ele>
        <time>2021-11-07T10:57:48.030Z</time>
      </trkpt>
      <trkpt lat="47.591721" lon="7.913096">
        <ele>307.968337</ele>
        <time>2021-11-07T10:57:48.415Z</time>
      </trkpt>
      <trkpt lat="47.591746" lon="7.913330">
        <ele>308.141112</ele>
        <time>2021-11-07T10:57:52.141Z</time>
      </trkpt>
      <trkpt lat="47.591809" lon="7.913704">
        <ele>308.427736</ele>
        <time>2021-11-07T10:57:56.359Z</time>
      </trkpt>
      <trkpt lat="47.591858" lon="7.913783">
        <ele>308.555146</ele>
        <time>2021-11-07T10:57:58.271Z</time>
      </trkpt>
      <trkpt lat="47.591953" lon="7.913843">
        <ele>308.736899</ele>
        <time>2021-11-07T10:58:00.267Z</time>
      </trkpt>
      <trkpt lat="47.592496" lon="7.914014">
        <ele>309.713988</ele>
        <time>2021-11-07T10:58:11.223Z</time>
      </trkpt>
      <trkpt lat="47.592589" lon="7.914035">
        <ele>309.879571</ele>
        <time>2021-11-07T10:58:14.243Z</time>
      </trkpt>
      <trkpt lat="47.592672" lon="7.914009">
        <ele>310.028889</ele>
        <time>2021-11-07T10:58:15.906Z</time>
      </trkpt>
      <trkpt lat="47.592807" lon="7.913929">
        <ele>310.284785</ele>
        <time>2021-11-07T10:58:18.369Z</time>
      </trkpt>
      <trkpt lat="47.593189" lon="7.913725">
        <ele>310.999447</ele>
        <time>2021-11-07T10:58:27.812Z</time>
      </trkpt>
      <trkpt lat="47.593511" lon="7.913649">
        <ele>311.573356</ele>
        <time>2021-11-07T10:58:35.745Z</time>
      </trkpt>
      <trkpt lat="47.593654" lon="7.913672">
        <ele>311.895971</ele>
        <time>2021-11-07T10:58:39.490Z</time>
      </trkpt>
      <trkpt lat="47.594163" lon="7.913924">
        <ele>313.105878</ele>
        <time>2021-11-07T10:58:52.645Z</time>
      </trkpt>
      <trkpt lat="47.594719" lon="7.914022">
        <ele>314.368303</ele>
        <time>2021-11-07T10:59:06.488Z</time>
      </trkpt>
      <trkpt lat="47.594871" lon="7.914141">
        <ele>314.755845</ele>
        <time>2021-11-07T10:59:10.465Z</time>
      </trkpt>
      <trkpt lat="47.595031" lon="7.914316">
        <ele>315.204109</ele>
        <time>2021-11-07T10:59:15.339Z</time>
      </trkpt>
      <trkpt lat="47.595292" lon="7.914664">
        <ele>315.849100</ele>
        <time>2021-11-07T10:59:22.966Z</time>
      </trkpt>
      <trkpt lat="47.595476" lon="7.914889">
        <ele>316.168621</ele>
        <time>2021-11-07T10:59:28.052Z</time>
      </trkpt>
      <trkpt lat="47.595688" lon="7.915084">
        <ele>316.502852</ele>
        <time>2021-11-07T10:59:33.485Z</time>
      </trkpt>
      <trkpt lat="47.595861" lon="7.915155">
        <ele>316.743342</ele>
        <time>2021-11-07T10:59:37.005Z</time>
      </trkpt>
      <trkpt lat="47.595909" lon="7.915188">
        <ele>316.814225</ele>
        <time>2021-11-07T10:59:38.087Z</time>
      </trkpt>
      <trkpt lat="47.595949" lon="7.915202">
        <ele>316.869288</ele>
        <time>2021-11-07T10:59:39.019Z</time>
      </trkpt>
      <trkpt lat="47.596117" lon="7.915243">
        <ele>317.097394</ele>
        <time>2021-11-07T10:59:42.615Z</time>
      </trkpt>
      <trkpt lat="47.596349" lon="7.915301">
        <ele>317.412603</ele>
        <time>2021-11-07T10:59:47.045Z</time>
      </trkpt>
      <trkpt lat="47.596736" lon="7.915598">
        <ele>317.996406</ele>
        <time>2021-11-07T10:59:54.883Z</time>
      </trkpt>
      <trkpt lat="47.596850" lon="7.915674">
        <ele>318.137303</ele>
        <time>2021-11-07T10:59:56.873Z</time>
      </trkpt>
      <trkpt lat="47.597083" lon="7.915733">
        <ele>318.383528</ele>
        <time>2021-11-07T11:00:01.005Z</time>
      </trkpt>
      <trkpt lat="47.597656" lon="7.915778">
        <ele>318.981247</ele>
        <time>2021-11-07T11:00:11.178Z</time>
      </trkpt>
      <trkpt lat="47.599120" lon="7.915596">
        <ele>320.446950</ele>
        <time>2021-11-07T11:00:41.150Z</time>
      </trkpt>
      <trkpt lat="47.599374" lon="7.915625">
        <ele>320.683407</ele>
        <time>2021-11-07T11:00:45.861Z</time>
      </trkpt>
      <trkpt lat="47.599906" lon="7.915798">
        <ele>321.188933</ele>
        <time>2021-11-07T11:00:55.688Z</time>
      </trkpt>
      <trkpt lat="47.600078" lon="7.915859">
        <ele>321.353083</ele>
        <time>2021-11-07T11:00:58.752Z</time>
      </trkpt>
      <trkpt lat="47.600344" lon="7.915900">
        <ele>321.593239</ele>
        <time>2021-11-07T11:01:03.242Z</time>
      </trkpt>
      <trkpt lat="47.600545" lon="7.915898">
        <ele>321.670197</ele>
        <time>2021-11-07T11:01:06.707Z</time>
      </trkpt>
      <trkpt lat="47.600689" lon="7.915853">
        <ele>321.726541</ele>
        <time>2021-11-07T11:01:09.037Z</time>
      </trkpt>
      <trkpt lat="47.601054" lon="7.915633">
        <ele>321.877388</ele>
        <time>2021-11-07T11:01:15.454Z</time>
      </trkpt>
      <trkpt lat="47.601546" lon="7.915285">
        <ele>322.086086</ele>
        <time>2021-11-07T11:01:23.858Z</time>
      </trkpt>
      <trkpt lat="47.602131" lon="7.915025">
        <ele>322.407206</ele>
        <time>2021-11-07T11:01:33.542Z</time>
      </trkpt>
      <trkpt lat="47.602754" lon="7.914823">
        <ele>323.139243</ele>
        <time>2021-11-07T11:01:45.362Z</time>
      </trkpt>
      <trkpt lat="47.603302" lon="7.914722">
        <ele>323.773134</ele>
        <time>2021-11-07T11:01:56.500Z</time>
      </trkpt>
      <trkpt lat="47.603466" lon="7.914620">
        <ele>323.977274</ele>
        <time>2021-11-07T11:02:00.415Z</time>
      </trkpt>
      <trkpt lat="47.603615" lon="7.914449">
        <ele>324.193540</ele>
        <time>2021-11-07T11:02:04.365Z</time>
      </trkpt>
      <trkpt lat="47.603884" lon="7.914671">
        <ele>324.609103</ele>
        <time>2021-11-07T11:02:11.076Z</time>
      </trkpt>
      <trkpt lat="47.604062" lon="7.914772">
        <ele>324.893911</ele>
        <time>2021-11-07T11:02:15.276Z</time>
      </trkpt>
      <trkpt lat="47.604393" lon="7.914885">
        <ele>325.401495</ele>
        <time>2021-11-07T11:02:22.284Z</time>
      </trkpt>
      <trkpt lat="47.604722" lon="7.914915">
        <ele>325.894084</ele>
        <time>2021-11-07T11:02:28.918Z</time>
      </trkpt>
      <trkpt lat="47.605105" lon="7.914869">
        <ele>326.468317</ele>
        <time>2021-11-07T11:02:36.818Z</time>
      </trkpt>
      <trkpt lat="47.605408" lon="7.914750">
        <ele>326.936729</ele>
        <time>2021-11-07T11:02:43.483Z</time>
      </trkpt>
      <trkpt lat="47.605648" lon="7.914613">
        <ele>327.256991</ele>
        <time>2021-11-07T11:02:48.850Z</time>
      </trkpt>
      <trkpt lat="47.605929" lon="7.914457">
        <ele>327.607112</ele>
        <time>2021-11-07T11:02:54.766Z</time>
      </trkpt>
      <trkpt lat="47.606200" lon="7.914255">
        <ele>327.961035</ele>
        <time>2021-11-07T11:03:00.587Z</time>
      </trkpt>
      <trkpt lat="47.606450" lon="7.914067">
        <ele>328.288117</ele>
        <time>2021-11-07T11:03:05.878Z</time>
      </trkpt>
      <trkpt lat="47.606558" lon="7.913988">
        <ele>328.428637</ele>
        <time>2021-11-07T11:03:08.114Z</time>
      </trkpt>
      <trkpt lat="47.606706" lon="7.913869">
        <ele>328.625085</ele>
        <time>2021-11-07T11:03:11.286Z</time>
      </trkpt>
      <trkpt lat="47.606938" lon="7.913697">
        <ele>328.927746</ele>
        <time>2021-11-07T11:03:16.149Z</time>
      </trkpt>
      <trkpt lat="47.607292" lon="7.913435">
        <ele>329.436713</ele>
        <time>2021-11-07T11:03:23.784Z</time>
      </trkpt>
      <trkpt lat="47.607663" lon="7.913198">
        <ele>329.993278</ele>
        <time>2021-11-07T11:03:32.028Z</time>
      </trkpt>
      <trkpt lat="47.607986" lon="7.913041">
        <ele>330.461601</ele>
        <time>2021-11-07T11:03:39.215Z</time>
      </trkpt>
      <trkpt lat="47.608679" lon="7.912703">
        <ele>331.466726</ele>
        <time>2021-11-07T11:03:54.183Z</time>
      </trkpt>
      <trkpt lat="47.609914" lon="7.912278">
        <ele>333.118563</ele>
        <time>2021-11-07T11:04:20.078Z</time>
      </trkpt>
      <trkpt lat="47.610416" lon="7.911983">
        <ele>333.818584</ele>
        <time>2021-11-07T11:04:31.283Z</time>
      </trkpt>
      <trkpt lat="47.611260" lon="7.911383">
        <ele>334.131380</ele>
        <time>2021-11-07T11:04:47.927Z</time>
      </trkpt>
      <trkpt lat="47.612029" lon="7.910940">
        <ele>334.320694</ele>
        <time>2021-11-07T11:04:59.402Z</time>
      </trkpt>
      <trkpt lat="47.612005" lon="7.910790">
        <ele>334.344545</ele>
        <time>2021-11-07T11:05:00.699Z</time>
      </trkpt>
      <trkpt lat="47.611994" lon="7.910676">
        <ele>334.299034</ele>
        <time>2021-11-07T11:05:01.768Z</time>
      </trkpt>
      <trkpt lat="47.611988" lon="7.910610">
        <ele>334.254597</ele>
        <time>2021-11-07T11:05:02.282Z</time>
      </trkpt>
      <trkpt lat="47.611981" lon="7.910534">
        <ele>334.203415</ele>
        <time>2021-11-07T11:05:02.919Z</time>
      </trkpt>
      <trkpt lat="47.611986" lon="7.910466">
        <ele>334.157773</ele>
        <time>2021-11-07T11:05:03.680Z</time>
      </trkpt>
      <trkpt lat="47.612020" lon="7.910364">
        <ele>334.081848</ele>
        <time>2021-11-07T11:05:04.698Z</time>
      </trkpt>
      <trkpt lat="47.612082" lon="7.910269">
        <ele>333.993622</ele>
        <time>2021-11-07T11:05:05.854Z</time>
      </trkpt>
      <trkpt lat="47.612131" lon="7.910214">
        <ele>333.932803</ele>
        <time>2021-11-07T11:05:06.641Z</time>
      </trkpt>
      <trkpt lat="47.612216" lon="7.910134">
        <ele>333.833167</ele>
        <time>2021-11-07T11:05:07.879Z</time>
      </trkpt>
      <trkpt lat="47.612897" lon="7.909812">
        <ele>333.125720</ele>
        <time>2021-11-07T11:05:16.821Z</time>
      </trkpt>
      <trkpt lat="47.613280" lon="7.909624">
        <ele>332.726423</ele>
        <time>2021-11-07T11:05:21.409Z</time>
      </trkpt>
      <trkpt lat="47.613360" lon="7.909602">
        <ele>332.645892</ele>
        <time>2021-11-07T11:05:22.345Z</time>
      </trkpt>
      <trkpt lat="47.613934" lon="7.909339">
        <ele>332.140523</ele>
        <time>2021-11-07T11:05:29.180Z</time>
      </trkpt>
      <trkpt lat="47.614063" lon="7.909285">
        <ele>332.030671</ele>
        <time>2021-11-07T11:05:30.794Z</time>
      </trkpt>
      <trkpt lat="47.614412" lon="7.909095">
        <ele>331.725993</ele>
        <time>2021-11-07T11:05:35.319Z</time>
      </trkpt>
      <trkpt lat="47.614784" lon="7.908839">
        <ele>331.389911</ele>
        <time>2021-11-07T11:05:40.527Z</time>
      </trkpt>
      <trkpt lat="47.614876" lon="7.908760">
        <ele>331.302791</ele>
        <time>2021-11-07T11:05:42.417Z</time>
      </trkpt>
      <trkpt lat="47.615085" lon="7.908567">
        <ele>331.101028</ele>
        <time>2021-11-07T11:05:45.938Z</time>
      </trkpt>
      <trkpt lat="47.615246" lon="7.908385">
        <ele>331.360759</ele>
        <time>2021-11-07T11:05:49.659Z</time>
      </trkpt>
      <trkpt lat="47.615374" lon="7.908222">
        <ele>331.588038</ele>
        <time>2021-11-07T11:05:51.854Z</time>
      </trkpt>
      <trkpt lat="47.615460" lon="7.908111">
        <ele>331.741623</ele>
        <time>2021-11-07T11:05:54.106Z</time>
      </trkpt>
      <trkpt lat="47.615669" lon="7.907870">
        <ele>332.098270</ele>
        <time>2021-11-07T11:05:58.535Z</time>
      </trkpt>
      <trkpt lat="47.615821" lon="7.907747">
        <ele>332.331545</ele>
        <time>2021-11-07T11:06:02.524Z</time>
      </trkpt>
      <trkpt lat="47.615946" lon="7.907692">
        <ele>332.507208</ele>
        <time>2021-11-07T11:06:04.540Z</time>
      </trkpt>
      <trkpt lat="47.616009" lon="7.907686">
        <ele>332.592262</ele>
        <time>2021-11-07T11:06:05.818Z</time>
      </trkpt>
      <trkpt lat="47.616028" lon="7.907466">
        <ele>332.793700</ele>
        <time>2021-11-07T11:06:10.533Z</time>
      </trkpt>
      <trkpt lat="47.616300" lon="7.907066">
        <ele>333.309711</ele>
        <time>2021-11-07T11:06:21.753Z</time>
      </trkpt>
      <trkpt lat="47.616287" lon="7.906966">
        <ele>333.402204</ele>
        <time>2021-11-07T11:06:23.572Z</time>
      </trkpt>
      <trkpt lat="47.616264" lon="7.906797">
        <ele>333.591184</ele>
        <time>2021-11-07T11:06:27.119Z</time>
      </trkpt>
      <trkpt lat="47.615998" lon="7.906103">
        <ele>334.912811</ele>
        <time>2021-11-07T11:06:44.647Z</time>
      </trkpt>
      <trkpt lat="47.615921" lon="7.905895">
        <ele>335.305656</ele>
        <time>2021-11-07T11:06:49.165Z</time>
      </trkpt>
      <trkpt lat="47.615868" lon="7.905596">
        <ele>335.817470</ele>
        <time>2021-11-07T11:06:56.272Z</time>
      </trkpt>
      <trkpt lat="47.615863" lon="7.905569">
        <ele>335.863823</ele>
        <time>2021-11-07T11:06:56.821Z</time>
      </trkpt>
      <trkpt lat="47.615837" lon="7.905247">
        <ele>336.400697</ele>
        <time>2021-11-07T11:07:03.208Z</time>
      </trkpt>
      <trkpt lat="47.615830" lon="7.904995">
        <ele>336.818231</ele>
        <time>2021-11-07T11:07:08.249Z</time>
      </trkpt>
      <trkpt lat="47.615823" lon="7.904763">
        <ele>337.202686</ele>
        <time>2021-11-07T11:07:12.769Z</time>
      </trkpt>
      <trkpt lat="47.615838" lon="7.903983">
        <ele>338.300351</ele>
        <time>2021-11-07T11:07:27.691Z</time>
      </trkpt>
      <trkpt lat="47.615894" lon="7.903663">
        <ele>338.657214</ele>
        <time>2021-11-07T11:07:33.490Z</time>
      </trkpt>
      <trkpt lat="47.615971" lon="7.903390">
        <ele>338.976650</ele>
        <time>2021-11-07T11:07:38.627Z</time>
      </trkpt>
      <trkpt lat="47.616102" lon="7.903098">
        <ele>339.355261</ele>
        <time>2021-11-07T11:07:45.026Z</time>
      </trkpt>
      <trkpt lat="47.616384" lon="7.902765">
        <ele>339.932414</ele>
        <time>2021-11-07T11:07:54.540Z</time>
      </trkpt>
      <trkpt lat="47.616593" lon="7.902555">
        <ele>340.336621</ele>
        <time>2021-11-07T11:08:00.754Z</time>
      </trkpt>
      <trkpt lat="47.616785" lon="7.902357">
        <ele>340.711053</ele>
        <time>2021-11-07T11:08:06.981Z</time>
      </trkpt>
      <trkpt lat="47.616907" lon="7.902260">
        <ele>340.927304</ele>
        <time>2021-11-07T11:08:10.716Z</time>
      </trkpt>
      <trkpt lat="47.617017" lon="7.902172">
        <ele>341.118118</ele>
        <time>2021-11-07T11:08:14.081Z</time>
      </trkpt>
      <trkpt lat="47.617152" lon="7.902073">
        <ele>341.348046</ele>
        <time>2021-11-07T11:08:18.078Z</time>
      </trkpt>
      <trkpt lat="47.617289" lon="7.902010">
        <ele>341.567039</ele>
        <time>2021-11-07T11:08:22.029Z</time>
      </trkpt>
      <trkpt lat="47.617757" lon="7.901936">
        <ele>342.285635</ele>
        <time>2021-11-07T11:08:33.711Z</time>
      </trkpt>
      <trkpt lat="47.618007" lon="7.901707">
        <ele>342.734237</ele>
        <time>2021-11-07T11:08:41.284Z</time>
      </trkpt>
      <trkpt lat="47.618101" lon="7.901636">
        <ele>342.895289</ele>
        <time>2021-11-07T11:08:43.970Z</time>
      </trkpt>
      <trkpt lat="47.618288" lon="7.901533">
        <ele>343.199847</ele>
        <time>2021-11-07T11:08:49.399Z</time>
      </trkpt>
      <trkpt lat="47.619318" lon="7.901346">
        <ele>344.903067</ele>
        <time>2021-11-07T11:09:18.042Z</time>
      </trkpt>
      <trkpt lat="47.619614" lon="7.901292">
        <ele>345.402727</ele>
        <time>2021-11-07T11:09:26.403Z</time>
      </trkpt>
      <trkpt lat="47.619888" lon="7.901390">
        <ele>345.874945</ele>
        <time>2021-11-07T11:09:33.655Z</time>
      </trkpt>
      <trkpt lat="47.619949" lon="7.901437">
        <ele>345.990106</ele>
        <time>2021-11-07T11:09:35.589Z</time>
      </trkpt>
      <trkpt lat="47.620059" lon="7.901525">
        <ele>346.199490</ele>
        <time>2021-11-07T11:09:38.633Z</time>
      </trkpt>
      <trkpt lat="47.620410" lon="7.901520">
        <ele>346.773708</ele>
        <time>2021-11-07T11:09:47.721Z</time>
      </trkpt>
      <trkpt lat="47.620624" lon="7.901458">
        <ele>347.115011</ele>
        <time>2021-11-07T11:09:53.603Z</time>
      </trkpt>
      <trkpt lat="47.620672" lon="7.901435">
        <ele>347.193967</ele>
        <time>2021-11-07T11:09:54.924Z</time>
      </trkpt>
      <trkpt lat="47.620725" lon="7.901411">
        <ele>347.280707</ele>
        <time>2021-11-07T11:09:56.253Z</time>
      </trkpt>
      <trkpt lat="47.620892" lon="7.901347">
        <ele>347.550693</ele>
        <time>2021-11-07T11:10:00.854Z</time>
      </trkpt>
      <trkpt lat="47.621491" lon="7.901218">
        <ele>348.498138</ele>
        <time>2021-11-07T11:10:16.911Z</time>
      </trkpt>
      <trkpt lat="47.621543" lon="7.901222">
        <ele>348.579643</ele>
        <time>2021-11-07T11:10:18.389Z</time>
      </trkpt>
      <trkpt lat="47.621641" lon="7.901251">
        <ele>348.736064</ele>
        <time>2021-11-07T11:10:21.095Z</time>
      </trkpt>
      <trkpt lat="47.621963" lon="7.901334">
        <ele>349.247643</ele>
        <time>2021-11-07T11:10:29.749Z</time>
      </trkpt>
      <trkpt lat="47.622044" lon="7.901325">
        <ele>349.374788</ele>
        <time>2021-11-07T11:10:31.996Z</time>
      </trkpt>
      <trkpt lat="47.622167" lon="7.901296">
        <ele>349.573150</ele>
        <time>2021-11-07T11:10:35.162Z</time>
      </trkpt>
      <trkpt lat="47.622355" lon="7.901252">
        <ele>349.876784</ele>
        <time>2021-11-07T11:10:40.419Z</time>
      </trkpt>
      <trkpt lat="47.622681" lon="7.901162">
        <ele>350.405793</ele>
        <time>2021-11-07T11:10:49.079Z</time>
      </trkpt>
      <trkpt lat="47.622944" lon="7.901144">
        <ele>350.825814</ele>
        <time>2021-11-07T11:10:55.995Z</time>
      </trkpt>
      <trkpt lat="47.623473" lon="7.901122">
        <ele>351.670082</ele>
        <time>2021-11-07T11:11:09.925Z</time>
      </trkpt>
      <trkpt lat="47.624511" lon="7.901144">
        <ele>353.605704</ele>
        <time>2021-11-07T11:11:38.084Z</time>
      </trkpt>
      <trkpt lat="47.624673" lon="7.901197">
        <ele>353.939814</ele>
        <time>2021-11-07T11:11:42.732Z</time>
      </trkpt>
      <trkpt lat="47.625157" lon="7.901492">
        <ele>354.993647</ele>
        <time>2021-11-07T11:11:57.808Z</time>
      </trkpt>
      <trkpt lat="47.625257" lon="7.901546">
        <ele>355.207974</ele>
        <time>2021-11-07T11:12:00.134Z</time>
      </trkpt>
      <trkpt lat="47.625293" lon="7.901611">
        <ele>355.322175</ele>
        <time>2021-11-07T11:12:01.341Z</time>
      </trkpt>
      <trkpt lat="47.625369" lon="7.901592">
        <ele>355.477398</ele>
        <time>2021-11-07T11:12:03.770Z</time>
      </trkpt>
      <trkpt lat="47.626663" lon="7.902101">
        <ele>358.293360</ele>
        <time>2021-11-07T11:12:36.061Z</time>
      </trkpt>
      <trkpt lat="47.627225" lon="7.902298">
        <ele>359.517240</ele>
        <time>2021-11-07T11:12:49.753Z</time>
      </trkpt>
      <trkpt lat="47.627453" lon="7.902345">
        <ele>359.692666</ele>
        <time>2021-11-07T11:12:54.336Z</time>
      </trkpt>
      <trkpt lat="47.627636" lon="7.902374">
        <ele>359.688714</ele>
        <time>2021-11-07T11:12:57.939Z</time>
      </trkpt>
      <trkpt lat="47.627939" lon="7.902419">
        <ele>359.682176</ele>
        <time>2021-11-07T11:13:03.358Z</time>
      </trkpt>
      <trkpt lat="47.628499" lon="7.902416">
        <ele>359.670151</ele>
        <time>2021-11-07T11:13:11.311Z</time>
      </trkpt>
      <trkpt lat="47.628663" lon="7.902374">
        <ele>359.666578</ele>
        <time>2021-11-07T11:13:13.479Z</time>
      </trkpt>
      <trkpt lat="47.628617" lon="7.902195">
        <ele>359.663805</ele>
        <time>2021-11-07T11:13:15.016Z</time>
      </trkpt>
      <trkpt lat="47.628239" lon="7.901249">
        <ele>359.022719</ele>
        <time>2021-11-07T11:13:23.588Z</time>
      </trkpt>
      <trkpt lat="47.628120" lon="7.901056">
        <ele>358.764142</ele>
        <time>2021-11-07T11:13:25.552Z</time>
      </trkpt>
      <trkpt lat="47.627514" lon="7.900453">
        <ele>357.693936</ele>
        <time>2021-11-07T11:13:33.409Z</time>
      </trkpt>
      <trkpt lat="47.627440" lon="7.900175">
        <ele>357.398473</ele>
        <time>2021-11-07T11:13:35.542Z</time>
      </trkpt>
      <trkpt lat="47.627129" lon="7.898072">
        <ele>358.849097</ele>
        <time>2021-11-07T11:13:57.871Z</time>
      </trkpt>
      <trkpt lat="47.627064" lon="7.897836">
        <ele>359.112818</ele>
        <time>2021-11-07T11:14:01.602Z</time>
      </trkpt>
      <trkpt lat="47.626939" lon="7.897544">
        <ele>359.470648</ele>
        <time>2021-11-07T11:14:07.857Z</time>
      </trkpt>
      <trkpt lat="47.626680" lon="7.897256">
        <ele>360.973297</ele>
        <time>2021-11-07T11:14:19.804Z</time>
      </trkpt>
      <trkpt lat="47.626521" lon="7.897153">
        <ele>362.666288</ele>
        <time>2021-11-07T11:14:27.012Z</time>
      </trkpt>
      <trkpt lat="47.626428" lon="7.897120">
        <ele>363.599396</ele>
        <time>2021-11-07T11:14:31.177Z</time>
      </trkpt>
      <trkpt lat="47.626245" lon="7.897103">
        <ele>365.388655</ele>
        <time>2021-11-07T11:14:38.054Z</time>
      </trkpt>
      <trkpt lat="47.626062" lon="7.897113">
        <ele>367.175627</ele>
        <time>2021-11-07T11:14:50.406Z</time>
      </trkpt>
      <trkpt lat="47.625946" lon="7.897132">
        <ele>368.314461</ele>
        <time>2021-11-07T11:14:55.530Z</time>
      </trkpt>
      <trkpt lat="47.625709" lon="7.897156">
        <ele>370.632549</ele>
        <time>2021-11-07T11:15:12.259Z</time>
      </trkpt>
      <trkpt lat="47.625555" lon="7.897164">
        <ele>372.136242</ele>
        <time>2021-11-07T11:15:19.558Z</time>
      </trkpt>
      <trkpt lat="47.625408" lon="7.897172">
        <ele>373.571671</ele>
        <time>2021-11-07T11:15:31.898Z</time>
      </trkpt>
      <trkpt lat="47.625188" lon="7.897128">
        <ele>375.737904</ele>
        <time>2021-11-07T11:15:43.139Z</time>
      </trkpt>
      <trkpt lat="47.625133" lon="7.897004">
        <ele>376.714193</ele>
        <time>2021-11-07T11:15:51.698Z</time>
      </trkpt>
      <trkpt lat="47.625137" lon="7.896861">
        <ele>377.757661</ele>
        <time>2021-11-07T11:15:58.190Z</time>
      </trkpt>
      <trkpt lat="47.625217" lon="7.896657">
        <ele>379.799119</ele>
        <time>2021-11-07T11:16:05.916Z</time>
      </trkpt>
      <trkpt lat="47.625340" lon="7.896501">
        <ele>381.875756</ele>
        <time>2021-11-07T11:16:19.378Z</time>
      </trkpt>
      <trkpt lat="47.625546" lon="7.896308">
        <ele>385.002405</ele>
        <time>2021-11-07T11:16:34.042Z</time>
      </trkpt>
      <trkpt lat="47.626363" lon="7.895584">
        <ele>397.215108</ele>
        <time>2021-11-07T11:17:38.394Z</time>
      </trkpt>
      <trkpt lat="47.626674" lon="7.895101">
        <ele>402.668371</ele>
        <time>2021-11-07T11:18:09.505Z</time>
      </trkpt>
      <trkpt lat="47.626865" lon="7.894506">
        <ele>407.651310</ele>
        <time>2021-11-07T11:18:36.436Z</time>
      </trkpt>
      <trkpt lat="47.626855" lon="7.893551">
        <ele>414.872774</ele>
        <time>2021-11-07T11:19:12.978Z</time>
      </trkpt>
      <trkpt lat="47.626818" lon="7.893202">
        <ele>417.543953</ele>
        <time>2021-11-07T11:19:27.546Z</time>
      </trkpt>
      <trkpt lat="47.626714" lon="7.892752">
        <ele>421.017161</ele>
        <time>2021-11-07T11:19:46.093Z</time>
      </trkpt>
      <trkpt lat="47.626348" lon="7.891663">
        <ele>428.142978</ele>
        <time>2021-11-07T11:20:29.511Z</time>
      </trkpt>
      <trkpt lat="47.626263" lon="7.891476">
        <ele>429.463775</ele>
        <time>2021-11-07T11:20:38.154Z</time>
      </trkpt>
      <trkpt lat="47.626106" lon="7.891132">
        <ele>431.896578</ele>
        <time>2021-11-07T11:20:51.450Z</time>
      </trkpt>
      <trkpt lat="47.625853" lon="7.890611">
        <ele>435.656885</ele>
        <time>2021-11-07T11:21:09.618Z</time>
      </trkpt>
      <trkpt lat="47.625716" lon="7.890252">
        <ele>437.491547</ele>
        <time>2021-11-07T11:21:20.129Z</time>
      </trkpt>
      <trkpt lat="47.625564" lon="7.889453">
        <ele>440.828059</ele>
        <time>2021-11-07T11:21:43.333Z</time>
      </trkpt>
      <trkpt lat="47.625499" lon="7.888101">
        <ele>446.275337</ele>
        <time>2021-11-07T11:22:17.096Z</time>
      </trkpt>
      <trkpt lat="47.625484" lon="7.887146">
        <ele>449.574198</ele>
        <time>2021-11-07T11:22:40.594Z</time>
      </trkpt>
      <trkpt lat="47.625481" lon="7.886856">
        <ele>450.541124</ele>
        <time>2021-11-07T11:22:46.978Z</time>
      </trkpt>
      <trkpt lat="47.625441" lon="7.886331">
        <ele>452.302537</ele>
        <time>2021-11-07T11:22:59.593Z</time>
      </trkpt>
      <trkpt lat="47.625424" lon="7.886225">
        <ele>452.665791</ele>
        <time>2021-11-07T11:23:02.052Z</time>
      </trkpt>
      <trkpt lat="47.625398" lon="7.886057">
        <ele>453.240453</ele>
        <time>2021-11-07T11:23:06.934Z</time>
      </trkpt>
      <trkpt lat="47.625152" lon="7.885204">
        <ele>456.213278</ele>
        <time>2021-11-07T11:23:27.099Z</time>
      </trkpt>
      <trkpt lat="47.624490" lon="7.883959">
        <ele>460.205142</ele>
        <time>2021-11-07T11:23:59.742Z</time>
      </trkpt>
      <trkpt lat="47.624331" lon="7.883160">
        <ele>462.302273</ele>
        <time>2021-11-07T11:24:15.234Z</time>
      </trkpt>
      <trkpt lat="47.624310" lon="7.883001">
        <ele>462.642046</ele>
        <time>2021-11-07T11:24:18.300Z</time>
      </trkpt>
      <trkpt lat="47.624255" lon="7.882581">
        <ele>463.230608</ele>
        <time>2021-11-07T11:24:26.319Z</time>
      </trkpt>
      <trkpt lat="47.624168" lon="7.882017">
        <ele>464.026515</ele>
        <time>2021-11-07T11:24:36.259Z</time>
      </trkpt>
      <trkpt lat="47.623987" lon="7.881363">
        <ele>464.999063</ele>
        <time>2021-11-07T11:24:47.312Z</time>
      </trkpt>
      <trkpt lat="47.623737" lon="7.880886">
        <ele>465.830278</ele>
        <time>2021-11-07T11:24:56.098Z</time>
      </trkpt>
      <trkpt lat="47.623726" lon="7.880866">
        <ele>465.865788</ele>
        <time>2021-11-07T11:24:56.487Z</time>
      </trkpt>
      <trkpt lat="47.623689" lon="7.880796">
        <ele>465.988162</ele>
        <time>2021-11-07T11:24:57.569Z</time>
      </trkpt>
      <trkpt lat="47.623257" lon="7.880066">
        <ele>466.175242</ele>
        <time>2021-11-07T11:25:07.521Z</time>
      </trkpt>
      <trkpt lat="47.622668" lon="7.879223">
        <ele>466.090008</ele>
        <time>2021-11-07T11:25:18.253Z</time>
      </trkpt>
      <trkpt lat="47.622140" lon="7.878531">
        <ele>466.210477</ele>
        <time>2021-11-07T11:25:27.773Z</time>
      </trkpt>
      <trkpt lat="47.621851" lon="7.878198">
        <ele>466.445170</ele>
        <time>2021-11-07T11:25:33.782Z</time>
      </trkpt>
      <trkpt lat="47.621473" lon="7.877633">
        <ele>466.789315</ele>
        <time>2021-11-07T11:25:44.116Z</time>
      </trkpt>
      <trkpt lat="47.620646" lon="7.876653">
        <ele>466.565951</ele>
        <time>2021-11-07T11:26:05.253Z</time>
      </trkpt>
      <trkpt lat="47.620438" lon="7.876135">
        <ele>465.958305</ele>
        <time>2021-11-07T11:26:09.778Z</time>
      </trkpt>
      <trkpt lat="47.620355" lon="7.875825">
        <ele>465.622147</ele>
        <time>2021-11-07T11:26:12.388Z</time>
      </trkpt>
      <trkpt lat="47.620229" lon="7.875324">
        <ele>465.083243</ele>
        <time>2021-11-07T11:26:16.202Z</time>
      </trkpt>
      <trkpt lat="47.620060" lon="7.874687">
        <ele>464.222096</ele>
        <time>2021-11-07T11:26:20.839Z</time>
      </trkpt>
      <trkpt lat="47.619939" lon="7.874280">
        <ele>463.104757</ele>
        <time>2021-11-07T11:26:23.831Z</time>
      </trkpt>
      <trkpt lat="47.619829" lon="7.874041">
        <ele>462.377828</ele>
        <time>2021-11-07T11:26:25.724Z</time>
      </trkpt>
      <trkpt lat="47.619528" lon="7.873535">
        <ele>460.682662</ele>
        <time>2021-11-07T11:26:30.031Z</time>
      </trkpt>
      <trkpt lat="47.618120" lon="7.871681">
        <ele>453.646085</ele>
        <time>2021-11-07T11:26:49.049Z</time>
      </trkpt>
      <trkpt lat="47.617973" lon="7.871350">
        <ele>452.645347</ele>
        <time>2021-11-07T11:26:51.667Z</time>
      </trkpt>
      <trkpt lat="47.617864" lon="7.870723">
        <ele>450.986604</ele>
        <time>2021-11-07T11:26:55.874Z</time>
      </trkpt>
      <trkpt lat="47.617859" lon="7.869709">
        <ele>447.371747</ele>
        <time>2021-11-07T11:27:02.291Z</time>
      </trkpt>
      <trkpt lat="47.617186" lon="7.867759">
        <ele>440.342164</ele>
        <time>2021-11-07T11:27:15.934Z</time>
      </trkpt>
      <trkpt lat="47.617092" lon="7.867491">
        <ele>439.686414</ele>
        <time>2021-11-07T11:27:17.879Z</time>
      </trkpt>
      <trkpt lat="47.616988" lon="7.867193">
        <ele>438.958033</ele>
        <time>2021-11-07T11:27:20.181Z</time>
      </trkpt>
      <trkpt lat="47.616709" lon="7.866450">
        <ele>437.111942</ele>
        <time>2021-11-07T11:27:26.211Z</time>
      </trkpt>
      <trkpt lat="47.616072" lon="7.865259">
        <ele>434.174563</ele>
        <time>2021-11-07T11:27:38.612Z</time>
      </trkpt>
      <trkpt lat="47.615975" lon="7.864921">
        <ele>433.525260</ele>
        <time>2021-11-07T11:27:41.822Z</time>
      </trkpt>
      <trkpt lat="47.615826" lon="7.863677">
        <ele>431.292038</ele>
        <time>2021-11-07T11:27:50.730Z</time>
      </trkpt>
      <trkpt lat="47.615791" lon="7.863469">
        <ele>430.576235</ele>
        <time>2021-11-07T11:27:52.039Z</time>
      </trkpt>
      <trkpt lat="47.615733" lon="7.863226">
        <ele>428.988860</ele>
        <time>2021-11-07T11:27:53.592Z</time>
      </trkpt>
      <trkpt lat="47.615533" lon="7.862749">
        <ele>425.529756</ele>
        <time>2021-11-07T11:27:56.959Z</time>
      </trkpt>
      <trkpt lat="47.615143" lon="7.862040">
        <ele>419.894754</ele>
        <time>2021-11-07T11:28:02.270Z</time>
      </trkpt>
      <trkpt lat="47.615080" lon="7.861804">
        <ele>418.331695</ele>
        <time>2021-11-07T11:28:03.765Z</time>
      </trkpt>
      <trkpt lat="47.615092" lon="7.861630">
        <ele>417.254632</ele>
        <time>2021-11-07T11:28:04.745Z</time>
      </trkpt>
      <trkpt lat="47.615241" lon="7.860672">
        <ele>410.803907</ele>
        <time>2021-11-07T11:28:10.369Z</time>
      </trkpt>
      <trkpt lat="47.615334" lon="7.860080">
        <ele>406.626552</ele>
        <time>2021-11-07T11:28:13.817Z</time>
      </trkpt>
      <trkpt lat="47.615543" lon="7.858897">
        <ele>398.222198</ele>
        <time>2021-11-07T11:28:20.951Z</time>
      </trkpt>
      <trkpt lat="47.615609" lon="7.858249">
        <ele>394.777743</ele>
        <time>2021-11-07T11:28:24.916Z</time>
      </trkpt>
      <trkpt lat="47.615612" lon="7.857977">
        <ele>393.680725</ele>
        <time>2021-11-07T11:28:26.521Z</time>
      </trkpt>
      <trkpt lat="47.615620" lon="7.857851">
        <ele>393.170367</ele>
        <time>2021-11-07T11:28:27.322Z</time>
      </trkpt>
      <trkpt lat="47.615675" lon="7.857668">
        <ele>392.362375</ele>
        <time>2021-11-07T11:28:28.558Z</time>
      </trkpt>
      <trkpt lat="47.616062" lon="7.857266">
        <ele>389.536118</ele>
        <time>2021-11-07T11:28:32.879Z</time>
      </trkpt>
      <trkpt lat="47.616148" lon="7.857074">
        <ele>388.606521</ele>
        <time>2021-11-07T11:28:34.397Z</time>
      </trkpt>
      <trkpt lat="47.616185" lon="7.856991">
        <ele>388.205250</ele>
        <time>2021-11-07T11:28:35.048Z</time>
      </trkpt>
      <trkpt lat="47.616206" lon="7.856813">
        <ele>387.476543</ele>
        <time>2021-11-07T11:28:36.163Z</time>
      </trkpt>
      <trkpt lat="47.616000" lon="7.856839">
        <ele>386.239756</ele>
        <time>2021-11-07T11:28:38.215Z</time>
      </trkpt>
      <trkpt lat="47.615844" lon="7.856900">
        <ele>385.373866</ele>
        <time>2021-11-07T11:28:39.695Z</time>
      </trkpt>
      <trkpt lat="47.615613" lon="7.857102">
        <ele>384.412674</ele>
        <time>2021-11-07T11:28:42.368Z</time>
      </trkpt>
      <trkpt lat="47.615118" lon="7.857895">
        <ele>381.801134</ele>
        <time>2021-11-07T11:28:49.616Z</time>
      </trkpt>
      <trkpt lat="47.614688" lon="7.858653">
        <ele>379.407250</ele>
        <time>2021-11-07T11:28:56.302Z</time>
      </trkpt>
      <trkpt lat="47.614583" lon="7.858866">
        <ele>378.869060</ele>
        <time>2021-11-07T11:28:58.107Z</time>
      </trkpt>
      <trkpt lat="47.614286" lon="7.859741">
        <ele>377.273096</ele>
        <time>2021-11-07T11:29:05.113Z</time>
      </trkpt>
      <trkpt lat="47.614015" lon="7.860305">
        <ele>376.144763</ele>
        <time>2021-11-07T11:29:10.048Z</time>
      </trkpt>
      <trkpt lat="47.613795" lon="7.860645">
        <ele>375.376993</ele>
        <time>2021-11-07T11:29:13.436Z</time>
      </trkpt>
      <trkpt lat="47.613709" lon="7.860779">
        <ele>375.075580</ele>
        <time>2021-11-07T11:29:14.876Z</time>
      </trkpt>
      <trkpt lat="47.613477" lon="7.861090">
        <ele>374.455991</ele>
        <time>2021-11-07T11:29:18.450Z</time>
      </trkpt>
      <trkpt lat="47.613247" lon="7.861408">
        <ele>373.949455</ele>
        <time>2021-11-07T11:29:22.060Z</time>
      </trkpt>
      <trkpt lat="47.613183" lon="7.861517">
        <ele>373.792468</ele>
        <time>2021-11-07T11:29:23.173Z</time>
      </trkpt>
      <trkpt lat="47.613099" lon="7.861661">
        <ele>373.585654</ele>
        <time>2021-11-07T11:29:24.587Z</time>
      </trkpt>
      <trkpt lat="47.611814" lon="7.864344">
        <ele>369.252083</ele>
        <time>2021-11-07T11:29:50.106Z</time>
      </trkpt>
      <trkpt lat="47.611380" lon="7.864872">
        <ele>367.970472</ele>
        <time>2021-11-07T11:29:55.843Z</time>
      </trkpt>
      <trkpt lat="47.610539" lon="7.865746">
        <ele>363.903852</ele>
        <time>2021-11-07T11:30:05.788Z</time>
      </trkpt>
      <trkpt lat="47.609971" lon="7.866486">
        <ele>360.760812</ele>
        <time>2021-11-07T11:30:12.992Z</time>
      </trkpt>
      <trkpt lat="47.608371" lon="7.868821">
        <ele>351.562845</ele>
        <time>2021-11-07T11:30:35.045Z</time>
      </trkpt>
      <trkpt lat="47.608074" lon="7.869176">
        <ele>349.742645</ele>
        <time>2021-11-07T11:30:38.715Z</time>
      </trkpt>
      <trkpt lat="47.607911" lon="7.869279">
        <ele>348.897165</ele>
        <time>2021-11-07T11:30:40.436Z</time>
      </trkpt>
      <trkpt lat="47.607848" lon="7.869319">
        <ele>348.570144</ele>
        <time>2021-11-07T11:30:41.059Z</time>
      </trkpt>
      <trkpt lat="47.607466" lon="7.869418">
        <ele>346.719629</ele>
        <time>2021-11-07T11:30:44.691Z</time>
      </trkpt>
      <trkpt lat="47.607341" lon="7.869436">
        <ele>346.120326</ele>
        <time>2021-11-07T11:30:45.853Z</time>
      </trkpt>
      <trkpt lat="47.607251" lon="7.869449">
        <ele>345.688816</ele>
        <time>2021-11-07T11:30:46.688Z</time>
      </trkpt>
      <trkpt lat="47.606761" lon="7.869665">
        <ele>343.523699</ele>
        <time>2021-11-07T11:30:51.474Z</time>
      </trkpt>
      <trkpt lat="47.606461" lon="7.869656">
        <ele>342.401730</ele>
        <time>2021-11-07T11:30:54.286Z</time>
      </trkpt>
      <trkpt lat="47.606292" lon="7.869632">
        <ele>341.766926</ele>
        <time>2021-11-07T11:30:55.843Z</time>
      </trkpt>
      <trkpt lat="47.605878" lon="7.869549">
        <ele>340.204847</ele>
        <time>2021-11-07T11:30:59.852Z</time>
      </trkpt>
      <trkpt lat="47.605451" lon="7.869487">
        <ele>338.600604</ele>
        <time>2021-11-07T11:31:04.474Z</time>
      </trkpt>
      <trkpt lat="47.605251" lon="7.869499">
        <ele>337.852166</ele>
        <time>2021-11-07T11:31:06.593Z</time>
      </trkpt>
      <trkpt lat="47.605151" lon="7.869535">
        <ele>337.823525</ele>
        <time>2021-11-07T11:31:07.883Z</time>
      </trkpt>
      <trkpt lat="47.604178" lon="7.870272">
        <ele>338.232203</ele>
        <time>2021-11-07T11:31:25.876Z</time>
      </trkpt>
      <trkpt lat="47.603441" lon="7.870715">
        <ele>338.413941</ele>
        <time>2021-11-07T11:31:42.470Z</time>
      </trkpt>
      <trkpt lat="47.603243" lon="7.870755">
        <ele>338.357082</ele>
        <time>2021-11-07T11:31:46.517Z</time>
      </trkpt>
      <trkpt lat="47.602981" lon="7.870758">
        <ele>338.282531</ele>
        <time>2021-11-07T11:31:50.848Z</time>
      </trkpt>
      <trkpt lat="47.602723" lon="7.870667">
        <ele>338.207072</ele>
        <time>2021-11-07T11:31:55.031Z</time>
      </trkpt>
      <trkpt lat="47.602649" lon="7.870651">
        <ele>338.185793</ele>
        <time>2021-11-07T11:31:56.047Z</time>
      </trkpt>
      <trkpt lat="47.602070" lon="7.870289">
        <ele>338.007003</ele>
        <time>2021-11-07T11:32:04.135Z</time>
      </trkpt>
      <trkpt lat="47.600522" lon="7.868445">
        <ele>333.425412</ele>
        <time>2021-11-07T11:32:24.728Z</time>
      </trkpt>
      <trkpt lat="47.600376" lon="7.868280">
        <ele>333.270958</ele>
        <time>2021-11-07T11:32:26.616Z</time>
      </trkpt>
      <trkpt lat="47.599705" lon="7.867526">
        <ele>332.609567</ele>
        <time>2021-11-07T11:32:36.459Z</time>
      </trkpt>
      <trkpt lat="47.598844" lon="7.866669">
        <ele>332.083297</ele>
        <time>2021-11-07T11:32:53.529Z</time>
      </trkpt>
      <trkpt lat="47.598366" lon="7.866463">
        <ele>332.248969</ele>
        <time>2021-11-07T11:33:03.234Z</time>
      </trkpt>
      <trkpt lat="47.597848" lon="7.866506">
        <ele>332.421643</ele>
        <time>2021-11-07T11:33:12.488Z</time>
      </trkpt>
      <trkpt lat="47.596934" lon="7.867028">
        <ele>331.523272</ele>
        <time>2021-11-07T11:33:25.872Z</time>
      </trkpt>
      <trkpt lat="47.596649" lon="7.867104">
        <ele>330.840836</ele>
        <time>2021-11-07T11:33:29.036Z</time>
      </trkpt>
      <trkpt lat="47.596216" lon="7.866990">
        <ele>329.804421</ele>
        <time>2021-11-07T11:33:33.337Z</time>
      </trkpt>
      <trkpt lat="47.595529" lon="7.866433">
        <ele>327.786783</ele>
        <time>2021-11-07T11:33:41.218Z</time>
      </trkpt>
      <trkpt lat="47.595188" lon="7.866380">
        <ele>326.628821</ele>
        <time>2021-11-07T11:33:44.866Z</time>
      </trkpt>
      <trkpt lat="47.594961" lon="7.866424">
        <ele>325.855656</ele>
        <time>2021-11-07T11:33:47.135Z</time>
      </trkpt>
      <trkpt lat="47.594779" lon="7.866515">
        <ele>325.206990</ele>
        <time>2021-11-07T11:33:49.482Z</time>
      </trkpt>
      <trkpt lat="47.594420" lon="7.866749">
        <ele>323.882584</ele>
        <time>2021-11-07T11:33:53.602Z</time>
      </trkpt>
      <trkpt lat="47.594096" lon="7.866777">
        <ele>322.786488</ele>
        <time>2021-11-07T11:33:56.871Z</time>
      </trkpt>
      <trkpt lat="47.593941" lon="7.866752">
        <ele>322.226395</ele>
        <time>2021-11-07T11:33:58.285Z</time>
      </trkpt>
      <trkpt lat="47.593497" lon="7.866682">
        <ele>318.499320</ele>
        <time>2021-11-07T11:34:02.371Z</time>
      </trkpt>
      <trkpt lat="47.593114" lon="7.866603">
        <ele>315.271535</ele>
        <time>2021-11-07T11:34:05.879Z</time>
      </trkpt>
      <trkpt lat="47.592687" lon="7.866538">
        <ele>311.688520</ele>
        <time>2021-11-07T11:34:09.611Z</time>
      </trkpt>
      <trkpt lat="47.592389" lon="7.866483">
        <ele>309.181840</ele>
        <time>2021-11-07T11:34:12.186Z</time>
      </trkpt>
      <trkpt lat="47.592194" lon="7.866446">
        <ele>307.540851</ele>
        <time>2021-11-07T11:34:13.832Z</time>
      </trkpt>
      <trkpt lat="47.591755" lon="7.866378">
        <ele>303.089774</ele>
        <time>2021-11-07T11:34:17.573Z</time>
      </trkpt>
      <trkpt lat="47.591538" lon="7.866361">
        <ele>300.868364</ele>
        <time>2021-11-07T11:34:19.400Z</time>
      </trkpt>
      <trkpt lat="47.591332" lon="7.866357">
        <ele>298.762317</ele>
        <time>2021-11-07T11:34:21.174Z</time>
      </trkpt>
      <trkpt lat="47.591128" lon="7.866362">
        <ele>296.676611</ele>
        <time>2021-11-07T11:34:22.880Z</time>
      </trkpt>
      <trkpt lat="47.590822" lon="7.866391">
        <ele>293.542096</ele>
        <time>2021-11-07T11:34:25.497Z</time>
      </trkpt>
      <trkpt lat="47.590997" lon="7.867574">
        <ele>287.514032</ele>
        <time>2021-11-07T11:34:32.825Z</time>
      </trkpt>
      <trkpt lat="47.591040" lon="7.867815">
        <ele>286.876826</ele>
        <time>2021-11-07T11:34:34.448Z</time>
      </trkpt>
      <trkpt lat="47.590980" lon="7.867841">
        <ele>286.639912</ele>
        <time>2021-11-07T11:34:35.005Z</time>
      </trkpt>
      <trkpt lat="47.590914" lon="7.867918">
        <ele>286.321622</ele>
        <time>2021-11-07T11:34:35.861Z</time>
      </trkpt>
      <trkpt lat="47.590772" lon="7.868063">
        <ele>285.668161</ele>
        <time>2021-11-07T11:34:37.600Z</time>
      </trkpt>
      <trkpt lat="47.590725" lon="7.868121">
        <ele>285.436408</ele>
        <time>2021-11-07T11:34:38.191Z</time>
      </trkpt>
      <trkpt lat="47.590638" lon="7.868174">
        <ele>285.079929</ele>
        <time>2021-11-07T11:34:39.216Z</time>
      </trkpt>
      <trkpt lat="47.590572" lon="7.868216">
        <ele>284.807723</ele>
        <time>2021-11-07T11:34:40.034Z</time>
      </trkpt>
      <trkpt lat="47.590365" lon="7.868441">
        <ele>283.834962</ele>
        <time>2021-11-07T11:34:42.806Z</time>
      </trkpt>
      <trkpt lat="47.590348" lon="7.868400">
        <ele>283.711940</ele>
        <time>2021-11-07T11:34:43.455Z</time>
      </trkpt>
      <trkpt lat="47.590333" lon="7.867008">
        <ele>281.821954</ele>
        <time>2021-11-07T11:34:54.073Z</time>
      </trkpt>
      <trkpt lat="47.590274" lon="7.866644">
        <ele>281.700235</ele>
        <time>2021-11-07T11:34:57.401Z</time>
      </trkpt>
      <trkpt lat="47.590266" lon="7.866595">
        <ele>281.683844</ele>
        <time>2021-11-07T11:34:57.870Z</time>
      </trkpt>
      <trkpt lat="47.590251" lon="7.866509">
        <ele>281.654962</ele>
        <time>2021-11-07T11:34:58.656Z</time>
      </trkpt>
      <trkpt lat="47.590167" lon="7.866097">
        <ele>281.515020</ele>
        <time>2021-11-07T11:35:03.244Z</time>
      </trkpt>
      <trkpt lat="47.589823" lon="7.864422">
        <ele>281.193697</ele>
        <time>2021-11-07T11:35:21.552Z</time>
      </trkpt>
      <trkpt lat="47.589471" lon="7.862994">
        <ele>281.185226</ele>
        <time>2021-11-07T11:35:36.302Z</time>
      </trkpt>
      <trkpt lat="47.587447" lon="7.853842">
        <ele>280.837674</ele>
        <time>2021-11-07T11:37:10.951Z</time>
      </trkpt>
      <trkpt lat="47.587300" lon="7.853345">
        <ele>280.868682</ele>
        <time>2021-11-07T11:37:16.521Z</time>
      </trkpt>
      <trkpt lat="47.586757" lon="7.850579">
        <ele>281.288613</ele>
        <time>2021-11-07T11:37:47.277Z</time>
      </trkpt>
      <trkpt lat="47.586522" lon="7.848600">
        <ele>281.697968</ele>
        <time>2021-11-07T11:38:09.428Z</time>
      </trkpt>
      <trkpt lat="47.586484" lon="7.848370">
        <ele>281.748471</ele>
        <time>2021-11-07T11:38:12.078Z</time>
      </trkpt>
      <trkpt lat="47.586486" lon="7.847936">
        <ele>281.841032</ele>
        <time>2021-11-07T11:38:16.788Z</time>
      </trkpt>
      <trkpt lat="47.586452" lon="7.845634">
        <ele>282.051541</ele>
        <time>2021-11-07T11:38:41.045Z</time>
      </trkpt>
      <trkpt lat="47.586790" lon="7.842637">
        <ele>281.856434</ele>
        <time>2021-11-07T11:39:10.339Z</time>
      </trkpt>
      <trkpt lat="47.586802" lon="7.842180">
        <ele>281.802577</ele>
        <time>2021-11-07T11:39:14.615Z</time>
      </trkpt>
      <trkpt lat="47.586809" lon="7.842018">
        <ele>281.783461</ele>
        <time>2021-11-07T11:39:16.118Z</time>
      </trkpt>
      <trkpt lat="47.586920" lon="7.841604">
        <ele>281.692817</ele>
        <time>2021-11-07T11:39:20.290Z</time>
      </trkpt>
      <trkpt lat="47.587628" lon="7.835942">
        <ele>280.511374</ele>
        <time>2021-11-07T11:40:13.796Z</time>
      </trkpt>
      <trkpt lat="47.587576" lon="7.835930">
        <ele>280.495747</ele>
        <time>2021-11-07T11:40:14.508Z</time>
      </trkpt>
      <trkpt lat="47.587628" lon="7.835942">
        <ele>280.480120</ele>
        <time>2021-11-07T11:40:15.229Z</time>
      </trkpt>
      <trkpt lat="47.587848" lon="7.834235">
        <ele>280.158220</ele>
        <time>2021-11-07T11:40:31.109Z</time>
      </trkpt>
      <trkpt lat="47.586496" lon="7.833050">
        <ele>280.376821</ele>
        <time>2021-11-07T11:40:53.484Z</time>
      </trkpt>
      <trkpt lat="47.586276" lon="7.833601">
        <ele>281.109995</ele>
        <time>2021-11-07T11:41:01.737Z</time>
      </trkpt>
      <trkpt lat="47.585278" lon="7.832688">
        <ele>284.265703</ele>
        <time>2021-11-07T11:41:33.190Z</time>
      </trkpt>
      <trkpt lat="47.585247" lon="7.832651">
        <ele>284.372796</ele>
        <time>2021-11-07T11:41:34.491Z</time>
      </trkpt>
      <trkpt lat="47.585195" lon="7.832588">
        <ele>284.553506</ele>
        <time>2021-11-07T11:41:36.686Z</time>
      </trkpt>
      <trkpt lat="47.585027" lon="7.832425">
        <ele>285.093793</ele>
        <time>2021-11-07T11:41:42.094Z</time>
      </trkpt>
      <trkpt lat="47.584717" lon="7.832264">
        <ele>286.409546</ele>
        <time>2021-11-07T11:41:51.759Z</time>
      </trkpt>
      <trkpt lat="47.584367" lon="7.832247">
        <ele>287.903791</ele>
        <time>2021-11-07T11:42:02.861Z</time>
      </trkpt>
      <trkpt lat="47.584156" lon="7.832334">
        <ele>288.838294</ele>
        <time>2021-11-07T11:42:10.567Z</time>
      </trkpt>
      <trkpt lat="47.584029" lon="7.832543">
        <ele>289.647920</ele>
        <time>2021-11-07T11:42:17.303Z</time>
      </trkpt>
      <trkpt lat="47.583849" lon="7.832883">
        <ele>290.891902</ele>
        <time>2021-11-07T11:42:27.692Z</time>
      </trkpt>
      <trkpt lat="47.583696" lon="7.833171">
        <ele>291.947026</ele>
        <time>2021-11-07T11:42:36.398Z</time>
      </trkpt>
      <trkpt lat="47.583523" lon="7.833509">
        <ele>293.057590</ele>
        <time>2021-11-07T11:42:44.858Z</time>
      </trkpt>
      <trkpt lat="47.583401" lon="7.833658">
        <ele>293.437281</ele>
        <time>2021-11-07T11:42:48.730Z</time>
      </trkpt>
      <trkpt lat="47.583327" lon="7.833750">
        <ele>293.669266</ele>
        <time>2021-11-07T11:42:51.857Z</time>
      </trkpt>
      <trkpt lat="47.583163" lon="7.833942">
        <ele>294.171231</ele>
        <time>2021-11-07T11:42:57.349Z</time>
      </trkpt>
      <trkpt lat="47.582828" lon="7.834117">
        <ele>295.024429</ele>
        <time>2021-11-07T11:43:05.796Z</time>
      </trkpt>
      <trkpt lat="47.580816" lon="7.834599">
        <ele>298.380308</ele>
        <time>2021-11-07T11:43:49.676Z</time>
      </trkpt>
      <trkpt lat="47.580667" lon="7.834627">
        <ele>298.534143</ele>
        <time>2021-11-07T11:43:52.058Z</time>
      </trkpt>
      <trkpt lat="47.579073" lon="7.834987">
        <ele>298.486432</ele>
        <time>2021-11-07T11:44:16.019Z</time>
      </trkpt>
      <trkpt lat="47.576219" lon="7.835650">
        <ele>295.408327</ele>
        <time>2021-11-07T11:44:49.679Z</time>
      </trkpt>
      <trkpt lat="47.575959" lon="7.835718">
        <ele>295.237858</ele>
        <time>2021-11-07T11:44:52.834Z</time>
      </trkpt>
      <trkpt lat="47.575033" lon="7.835907">
        <ele>294.634318</ele>
        <time>2021-11-07T11:45:05.288Z</time>
      </trkpt>
      <trkpt lat="47.574568" lon="7.836025">
        <ele>294.571280</ele>
        <time>2021-11-07T11:45:12.274Z</time>
      </trkpt>
      <trkpt lat="47.574158" lon="7.836106">
        <ele>294.712160</ele>
        <time>2021-11-07T11:45:18.947Z</time>
      </trkpt>
      <trkpt lat="47.573815" lon="7.836215">
        <ele>294.831639</ele>
        <time>2021-11-07T11:45:26.626Z</time>
      </trkpt>
      <trkpt lat="47.573348" lon="7.836386">
        <ele>294.995479</ele>
        <time>2021-11-07T11:45:37.478Z</time>
      </trkpt>
      <trkpt lat="47.572760" lon="7.836606">
        <ele>295.277753</ele>
        <time>2021-11-07T11:45:51.089Z</time>
      </trkpt>
      <trkpt lat="47.572296" lon="7.836777">
        <ele>295.562015</ele>
        <time>2021-11-07T11:46:01.514Z</time>
      </trkpt>
      <trkpt lat="47.572139" lon="7.836834">
        <ele>295.658115</ele>
        <time>2021-11-07T11:46:05.001Z</time>
      </trkpt>
      <trkpt lat="47.571871" lon="7.836932">
        <ele>295.822227</ele>
        <time>2021-11-07T11:46:11.038Z</time>
      </trkpt>
      <trkpt lat="47.571771" lon="7.836971">
        <ele>295.883704</ele>
        <time>2021-11-07T11:46:13.274Z</time>
      </trkpt>
      <trkpt lat="47.571254" lon="7.837161">
        <ele>296.237228</ele>
        <time>2021-11-07T11:46:25.725Z</time>
      </trkpt>
      <trkpt lat="47.570985" lon="7.837265">
        <ele>296.601739</ele>
        <time>2021-11-07T11:46:32.678Z</time>
      </trkpt>
      <trkpt lat="47.570872" lon="7.837307">
        <ele>296.754491</ele>
        <time>2021-11-07T11:46:35.694Z</time>
      </trkpt>
      <trkpt lat="47.570298" lon="7.837528">
        <ele>297.532093</ele>
        <time>2021-11-07T11:46:51.016Z</time>
      </trkpt>
      <trkpt lat="47.570038" lon="7.837643">
        <ele>297.887858</ele>
        <time>2021-11-07T11:46:58.140Z</time>
      </trkpt>
      <trkpt lat="47.569907" lon="7.837696">
        <ele>298.065909</ele>
        <time>2021-11-07T11:47:01.661Z</time>
      </trkpt>
      <trkpt lat="47.569814" lon="7.837733">
        <ele>298.192166</ele>
        <time>2021-11-07T11:47:04.223Z</time>
      </trkpt>
      <trkpt lat="47.569665" lon="7.837789">
        <ele>298.393717</ele>
        <time>2021-11-07T11:47:08.186Z</time>
      </trkpt>
      <trkpt lat="47.569522" lon="7.837844">
        <ele>298.581714</ele>
        <time>2021-11-07T11:47:12.041Z</time>
      </trkpt>
      <trkpt lat="47.569310" lon="7.837922">
        <ele>298.840505</ele>
        <time>2021-11-07T11:47:17.788Z</time>
      </trkpt>
      <trkpt lat="47.568988" lon="7.838054">
        <ele>299.236317</ele>
        <time>2021-11-07T11:47:26.565Z</time>
      </trkpt>
      <trkpt lat="47.568420" lon="7.838300">
        <ele>299.937399</ele>
        <time>2021-11-07T11:47:41.823Z</time>
      </trkpt>
      <trkpt lat="47.568160" lon="7.838415">
        <ele>300.258858</ele>
        <time>2021-11-07T11:47:48.236Z</time>
      </trkpt>
      <trkpt lat="47.568042" lon="7.838436">
        <ele>300.399663</ele>
        <time>2021-11-07T11:47:50.971Z</time>
      </trkpt>
      <trkpt lat="47.567936" lon="7.838380">
        <ele>300.532986</ele>
        <time>2021-11-07T11:47:53.504Z</time>
      </trkpt>
      <trkpt lat="47.567846" lon="7.838609">
        <ele>300.713132</ele>
        <time>2021-11-07T11:47:56.532Z</time>
      </trkpt>
      <trkpt lat="47.567823" lon="7.838648">
        <ele>300.739223</ele>
        <time>2021-11-07T11:47:57.188Z</time>
      </trkpt>
      <trkpt lat="47.567634" lon="7.839037">
        <ele>300.980676</ele>
        <time>2021-11-07T11:48:02.604Z</time>
      </trkpt>
      <trkpt lat="47.567626" lon="7.839064">
        <ele>300.995529</ele>
        <time>2021-11-07T11:48:03.017Z</time>
      </trkpt>
      <trkpt lat="47.567564" lon="7.839283">
        <ele>301.115156</ele>
        <time>2021-11-07T11:48:05.734Z</time>
      </trkpt>
      <trkpt lat="47.567530" lon="7.839459">
        <ele>301.207369</ele>
        <time>2021-11-07T11:48:07.924Z</time>
      </trkpt>
      <trkpt lat="47.567510" lon="7.839548">
        <ele>301.254620</ele>
        <time>2021-11-07T11:48:09.046Z</time>
      </trkpt>
      <trkpt lat="47.567481" lon="7.839664">
        <ele>301.316931</ele>
        <time>2021-11-07T11:48:10.387Z</time>
      </trkpt>
      <trkpt lat="47.567406" lon="7.839778">
        <ele>301.397131</ele>
        <time>2021-11-07T11:48:12.437Z</time>
      </trkpt>
      <trkpt lat="47.567111" lon="7.839998">
        <ele>301.643666</ele>
        <time>2021-11-07T11:48:18.418Z</time>
      </trkpt>
      <trkpt lat="47.566826" lon="7.840179">
        <ele>301.875139</ele>
        <time>2021-11-07T11:48:23.939Z</time>
      </trkpt>
      <trkpt lat="47.566592" lon="7.840279">
        <ele>302.085782</ele>
        <time>2021-11-07T11:48:28.568Z</time>
      </trkpt>
      <trkpt lat="47.566515" lon="7.840312">
        <ele>302.176953</ele>
        <time>2021-11-07T11:48:29.858Z</time>
      </trkpt>
      <trkpt lat="47.566450" lon="7.840326">
        <ele>302.251664</ele>
        <time>2021-11-07T11:48:31.096Z</time>
      </trkpt>
      <trkpt lat="47.566350" lon="7.840350">
        <ele>302.366890</ele>
        <time>2021-11-07T11:48:33.004Z</time>
      </trkpt>
      <trkpt lat="47.566221" lon="7.840340">
        <ele>302.513820</ele>
        <time>2021-11-07T11:48:35.337Z</time>
      </trkpt>
      <trkpt lat="47.566142" lon="7.840322">
        <ele>302.604734</ele>
        <time>2021-11-07T11:48:36.570Z</time>
      </trkpt>
      <trkpt lat="47.566081" lon="7.840309">
        <ele>302.674831</ele>
        <time>2021-11-07T11:48:37.783Z</time>
      </trkpt>
      <trkpt lat="47.565906" lon="7.840272">
        <ele>302.875899</ele>
        <time>2021-11-07T11:48:41.234Z</time>
      </trkpt>
      <trkpt lat="47.565343" lon="7.840185">
        <ele>303.519750</ele>
        <time>2021-11-07T11:48:52.554Z</time>
      </trkpt>
      <trkpt lat="47.565233" lon="7.840176">
        <ele>303.645059</ele>
        <time>2021-11-07T11:48:54.892Z</time>
      </trkpt>
      <trkpt lat="47.565168" lon="7.840179">
        <ele>303.719028</ele>
        <time>2021-11-07T11:48:56.267Z</time>
      </trkpt>
      <trkpt lat="47.565057" lon="7.840213">
        <ele>303.847953</ele>
        <time>2021-11-07T11:48:58.510Z</time>
      </trkpt>
      <trkpt lat="47.564936" lon="7.840261">
        <ele>303.990428</ele>
        <time>2021-11-07T11:49:01.227Z</time>
      </trkpt>
      <trkpt lat="47.564558" lon="7.840516">
        <ele>304.437262</ele>
        <time>2021-11-07T11:49:09.509Z</time>
      </trkpt>
      <trkpt lat="47.564534" lon="7.840532">
        <ele>304.465351</ele>
        <time>2021-11-07T11:49:10.006Z</time>
      </trkpt>
      <trkpt lat="47.564463" lon="7.840580">
        <ele>304.548648</ele>
        <time>2021-11-07T11:49:11.620Z</time>
      </trkpt>
      <trkpt lat="47.564094" lon="7.840838">
        <ele>304.984146</ele>
        <time>2021-11-07T11:49:19.280Z</time>
      </trkpt>
      <trkpt lat="47.563986" lon="7.840916">
        <ele>305.112383</ele>
        <time>2021-11-07T11:49:21.568Z</time>
      </trkpt>
      <trkpt lat="47.563941" lon="7.840948">
        <ele>305.165659</ele>
        <time>2021-11-07T11:49:22.493Z</time>
      </trkpt>
      <trkpt lat="47.563805" lon="7.841046">
        <ele>305.327073</ele>
        <time>2021-11-07T11:49:25.300Z</time>
      </trkpt>
      <trkpt lat="47.563659" lon="7.841150">
        <ele>305.499978</ele>
        <time>2021-11-07T11:49:28.192Z</time>
      </trkpt>
      <trkpt lat="47.563483" lon="7.841269">
        <ele>305.706466</ele>
        <time>2021-11-07T11:49:31.920Z</time>
      </trkpt>
      <trkpt lat="47.563300" lon="7.841391">
        <ele>305.920651</ele>
        <time>2021-11-07T11:49:35.481Z</time>
      </trkpt>
      <trkpt lat="47.563016" lon="7.841568">
        <ele>306.289831</ele>
        <time>2021-11-07T11:49:41.337Z</time>
      </trkpt>
      <trkpt lat="47.562965" lon="7.841597">
        <ele>306.356477</ele>
        <time>2021-11-07T11:49:42.316Z</time>
      </trkpt>
      <trkpt lat="47.562904" lon="7.841632">
        <ele>306.436284</ele>
        <time>2021-11-07T11:49:43.545Z</time>
      </trkpt>
      <trkpt lat="47.562574" lon="7.841873">
        <ele>306.885135</ele>
        <time>2021-11-07T11:49:50.511Z</time>
      </trkpt>
      <trkpt lat="47.562440" lon="7.842083">
        <ele>307.123081</ele>
        <time>2021-11-07T11:49:54.130Z</time>
      </trkpt>
      <trkpt lat="47.562385" lon="7.842183">
        <ele>307.229292</ele>
        <time>2021-11-07T11:49:55.697Z</time>
      </trkpt>
      <trkpt lat="47.562300" lon="7.842326">
        <ele>307.386183</ele>
        <time>2021-11-07T11:49:58.597Z</time>
      </trkpt>
      <trkpt lat="47.562179" lon="7.842500">
        <ele>307.591887</ele>
        <time>2021-11-07T11:50:02.075Z</time>
      </trkpt>
      <trkpt lat="47.561498" lon="7.843130">
        <ele>308.499574</ele>
        <time>2021-11-07T11:50:18.786Z</time>
      </trkpt>
      <trkpt lat="47.561434" lon="7.843181">
        <ele>308.572685</ele>
        <time>2021-11-07T11:50:20.591Z</time>
      </trkpt>
      <trkpt lat="47.561038" lon="7.843502">
        <ele>309.026823</ele>
        <time>2021-11-07T11:50:29.292Z</time>
      </trkpt>
      <trkpt lat="47.560934" lon="7.843550">
        <ele>309.136418</ele>
        <time>2021-11-07T11:50:31.447Z</time>
      </trkpt>
      <trkpt lat="47.560812" lon="7.843560">
        <ele>309.259353</ele>
        <time>2021-11-07T11:50:33.691Z</time>
      </trkpt>
      <trkpt lat="47.560515" lon="7.843379">
        <ele>309.582455</ele>
        <time>2021-11-07T11:50:39.427Z</time>
      </trkpt>
      <trkpt lat="47.560430" lon="7.843341">
        <ele>309.671783</ele>
        <time>2021-11-07T11:50:41.229Z</time>
      </trkpt>
      <trkpt lat="47.560338" lon="7.843341">
        <ele>309.764347</ele>
        <time>2021-11-07T11:50:42.452Z</time>
      </trkpt>
      <trkpt lat="47.560209" lon="7.843393">
        <ele>309.898853</ele>
        <time>2021-11-07T11:50:44.928Z</time>
      </trkpt>
      <trkpt lat="47.560139" lon="7.843433">
        <ele>309.971497</ele>
        <time>2021-11-07T11:50:46.247Z</time>
      </trkpt>
      <trkpt lat="47.559847" lon="7.843604">
        <ele>309.950525</ele>
        <time>2021-11-07T11:50:51.415Z</time>
      </trkpt>
      <trkpt lat="47.559583" lon="7.843813">
        <ele>309.930532</ele>
        <time>2021-11-07T11:50:55.906Z</time>
      </trkpt>
      <trkpt lat="47.559158" lon="7.844233">
        <ele>309.896410</ele>
        <time>2021-11-07T11:51:03.115Z</time>
      </trkpt>
      <trkpt lat="47.559109" lon="7.844229">
        <ele>309.893132</ele>
        <time>2021-11-07T11:51:03.705Z</time>
      </trkpt>
      <trkpt lat="47.559060" lon="7.844197">
        <ele>309.889555</ele>
        <time>2021-11-07T11:51:04.337Z</time>
      </trkpt>
      <trkpt lat="47.558884" lon="7.843836">
        <ele>309.869480</ele>
        <time>2021-11-07T11:51:08.489Z</time>
      </trkpt>
      <trkpt lat="47.558555" lon="7.843392">
        <ele>309.867214</ele>
        <time>2021-11-07T11:51:14.524Z</time>
      </trkpt>
      <trkpt lat="47.558471" lon="7.843365">
        <ele>309.874861</ele>
        <time>2021-11-07T11:51:15.781Z</time>
      </trkpt>
      <trkpt lat="47.558405" lon="7.843371">
        <ele>309.880744</ele>
        <time>2021-11-07T11:51:16.951Z</time>
      </trkpt>
      <trkpt lat="47.558136" lon="7.843582">
        <ele>309.907822</ele>
        <time>2021-11-07T11:51:21.158Z</time>
      </trkpt>
      <trkpt lat="47.557967" lon="7.843683">
        <ele>309.924033</ele>
        <time>2021-11-07T11:51:23.876Z</time>
      </trkpt>
      <trkpt lat="47.557846" lon="7.843756">
        <ele>309.935656</ele>
        <time>2021-11-07T11:51:25.720Z</time>
      </trkpt>
      <trkpt lat="47.557759" lon="7.843839">
        <ele>309.944862</ele>
        <time>2021-11-07T11:51:27.496Z</time>
      </trkpt>
      <trkpt lat="47.557715" lon="7.843940">
        <ele>309.952079</ele>
        <time>2021-11-07T11:51:28.725Z</time>
      </trkpt>
      <trkpt lat="47.557560" lon="7.844433">
        <ele>309.984733</ele>
        <time>2021-11-07T11:51:34.684Z</time>
      </trkpt>
      <trkpt lat="47.557282" lon="7.844832">
        <ele>310.074023</ele>
        <time>2021-11-07T11:51:41.117Z</time>
      </trkpt>
      <trkpt lat="47.557134" lon="7.845095">
        <ele>310.242677</ele>
        <time>2021-11-07T11:51:44.892Z</time>
      </trkpt>
      <trkpt lat="47.556636" lon="7.845928">
        <ele>310.790767</ele>
        <time>2021-11-07T11:51:57.743Z</time>
      </trkpt>
      <trkpt lat="47.556060" lon="7.846859">
        <ele>311.476075</ele>
        <time>2021-11-07T11:52:13.870Z</time>
      </trkpt>
      <trkpt lat="47.555990" lon="7.846965">
        <ele>311.601245</ele>
        <time>2021-11-07T11:52:15.854Z</time>
      </trkpt>
      <trkpt lat="47.555990" lon="7.846965">
        <ele>311.601245</ele>
        <time>2021-11-07T11:52:15.865Z</time>
      </trkpt>
      <trkpt lat="47.555966" lon="7.846932">
        <ele>311.642191</ele>
        <time>2021-11-07T11:52:16.442Z</time>
      </trkpt>
      <trkpt lat="47.555892" lon="7.846856">
        <ele>311.754792</ele>
        <time>2021-11-07T11:52:17.997Z</time>
      </trkpt>
      <trkpt lat="47.555855" lon="7.846815">
        <ele>311.812572</ele>
        <time>2021-11-07T11:52:18.907Z</time>
      </trkpt>
      <trkpt lat="47.555727" lon="7.846715">
        <ele>311.993537</ele>
        <time>2021-11-07T11:52:21.910Z</time>
      </trkpt>
      <trkpt lat="47.555199" lon="7.846687">
        <ele>312.654279</ele>
        <time>2021-11-07T11:52:31.877Z</time>
      </trkpt>
      <trkpt lat="47.555068" lon="7.846672">
        <ele>312.818597</ele>
        <time>2021-11-07T11:52:34.740Z</time>
      </trkpt>
      <trkpt lat="47.554995" lon="7.846915">
        <ele>313.043093</ele>
        <time>2021-11-07T11:52:38.463Z</time>
      </trkpt>
      <trkpt lat="47.554892" lon="7.847148">
        <ele>313.278179</ele>
        <time>2021-11-07T11:52:42.433Z</time>
      </trkpt>
      <trkpt lat="47.554759" lon="7.847388">
        <ele>313.540282</ele>
        <time>2021-11-07T11:52:46.754Z</time>
      </trkpt>
      <trkpt lat="47.554618" lon="7.847626">
        <ele>313.840374</ele>
        <time>2021-11-07T11:52:51.313Z</time>
      </trkpt>
      <trkpt lat="47.554465" lon="7.847858">
        <ele>314.152529</ele>
        <time>2021-11-07T11:52:55.948Z</time>
      </trkpt>
      <trkpt lat="47.554351" lon="7.848049">
        <ele>314.397903</ele>
        <time>2021-11-07T11:52:59.409Z</time>
      </trkpt>
      <trkpt lat="47.554269" lon="7.848188">
        <ele>314.575566</ele>
        <time>2021-11-07T11:53:01.941Z</time>
      </trkpt>
      <trkpt lat="47.554209" lon="7.848300">
        <ele>314.713176</ele>
        <time>2021-11-07T11:53:04.023Z</time>
      </trkpt>
      <trkpt lat="47.554055" lon="7.848586">
        <ele>315.065270</ele>
        <time>2021-11-07T11:53:08.891Z</time>
      </trkpt>
      <trkpt lat="47.553725" lon="7.849291">
        <ele>315.890930</ele>
        <time>2021-11-07T11:53:20.258Z</time>
      </trkpt>
      <trkpt lat="47.553605" lon="7.849629">
        <ele>316.310675</ele>
        <time>2021-11-07T11:53:25.713Z</time>
      </trkpt>
      <trkpt lat="47.553537" lon="7.849904">
        <ele>316.714983</ele>
        <time>2021-11-07T11:53:29.903Z</time>
      </trkpt>
      <trkpt lat="47.553380" lon="7.850453">
        <ele>317.538092</ele>
        <time>2021-11-07T11:53:38.755Z</time>
      </trkpt>
      <trkpt lat="47.553344" lon="7.850525">
        <ele>317.661791</ele>
        <time>2021-11-07T11:53:40.021Z</time>
      </trkpt>
      <trkpt lat="47.553283" lon="7.850634">
        <ele>317.857265</ele>
        <time>2021-11-07T11:53:42.075Z</time>
      </trkpt>
      <trkpt lat="47.552876" lon="7.851300">
        <ele>319.097566</ele>
        <time>2021-11-07T11:53:55.908Z</time>
      </trkpt>
      <trkpt lat="47.552678" lon="7.851709">
        <ele>319.792418</ele>
        <time>2021-11-07T11:54:04.590Z</time>
      </trkpt>
      <trkpt lat="47.552449" lon="7.852231">
        <ele>321.138595</ele>
        <time>2021-11-07T11:54:15.889Z</time>
      </trkpt>
      <trkpt lat="47.552272" lon="7.852167">
        <ele>321.728593</ele>
        <time>2021-11-07T11:54:21.290Z</time>
      </trkpt>
      <trkpt lat="47.552097" lon="7.852063">
        <ele>322.339178</ele>
        <time>2021-11-07T11:54:26.537Z</time>
      </trkpt>
      <trkpt lat="47.552042" lon="7.852007">
        <ele>322.555284</ele>
        <time>2021-11-07T11:54:28.937Z</time>
      </trkpt>
      <trkpt lat="47.551925" lon="7.851845">
        <ele>323.073851</ele>
        <time>2021-11-07T11:54:33.202Z</time>
      </trkpt>
      <trkpt lat="47.551830" lon="7.851603">
        <ele>323.685725</ele>
        <time>2021-11-07T11:54:39.024Z</time>
      </trkpt>
      <trkpt lat="47.551660" lon="7.851725">
        <ele>324.297409</ele>
        <time>2021-11-07T11:54:44.258Z</time>
      </trkpt>
      <trkpt lat="47.551516" lon="7.851950">
        <ele>324.975109</ele>
        <time>2021-11-07T11:54:50.816Z</time>
      </trkpt>
      <trkpt lat="47.550221" lon="7.853833">
        <ele>329.740306</ele>
        <time>2021-11-07T11:55:38.108Z</time>
      </trkpt>
      <trkpt lat="47.549883" lon="7.854434">
        <ele>330.384387</ele>
        <time>2021-11-07T11:55:48.228Z</time>
      </trkpt>
      <trkpt lat="47.549566" lon="7.855225">
        <ele>330.677939</ele>
        <time>2021-11-07T11:56:02.087Z</time>
      </trkpt>
      <trkpt lat="47.549362" lon="7.855774">
        <ele>330.877922</ele>
        <time>2021-11-07T11:56:10.576Z</time>
      </trkpt>
      <trkpt lat="47.548887" lon="7.857308">
        <ele>331.185328</ele>
        <time>2021-11-07T11:56:32.684Z</time>
      </trkpt>
      <trkpt lat="47.548743" lon="7.857692">
        <ele>331.230621</ele>
        <time>2021-11-07T11:56:38.656Z</time>
      </trkpt>
      <trkpt lat="47.548701" lon="7.857893">
        <ele>331.252316</ele>
        <time>2021-11-07T11:56:41.627Z</time>
      </trkpt>
      <trkpt lat="47.548686" lon="7.857973">
        <ele>331.260876</ele>
        <time>2021-11-07T11:56:42.750Z</time>
      </trkpt>
      <trkpt lat="47.548611" lon="7.858381">
        <ele>331.304475</ele>
        <time>2021-11-07T11:56:48.964Z</time>
      </trkpt>
      <trkpt lat="47.548334" lon="7.859801">
        <ele>332.183017</ele>
        <time>2021-11-07T11:57:12.002Z</time>
      </trkpt>
      <trkpt lat="47.548049" lon="7.860929">
        <ele>333.148917</ele>
        <time>2021-11-07T11:57:33.020Z</time>
      </trkpt>
      <trkpt lat="47.547930" lon="7.861711">
        <ele>333.898685</ele>
        <time>2021-11-07T11:57:47.784Z</time>
      </trkpt>
      <trkpt lat="47.547568" lon="7.863151">
        <ele>335.562881</ele>
        <time>2021-11-07T11:58:16.911Z</time>
      </trkpt>
      <trkpt lat="47.547320" lon="7.863864">
        <ele>336.370382</ele>
        <time>2021-11-07T11:58:30.852Z</time>
      </trkpt>
      <trkpt lat="47.546974" lon="7.864423">
        <ele>336.337557</ele>
        <time>2021-11-07T11:58:41.675Z</time>
      </trkpt>
      <trkpt lat="47.546885" lon="7.864500">
        <ele>336.330948</ele>
        <time>2021-11-07T11:58:44.760Z</time>
      </trkpt>
      <trkpt lat="47.546894" lon="7.864837">
        <ele>336.316351</ele>
        <time>2021-11-07T11:58:48.644Z</time>
      </trkpt>
      <trkpt lat="47.546889" lon="7.865225">
        <ele>336.299556</ele>
        <time>2021-11-07T11:58:54.069Z</time>
      </trkpt>
      <trkpt lat="47.546819" lon="7.865489">
        <ele>336.287280</ele>
        <time>2021-11-07T11:58:58.013Z</time>
      </trkpt>
      <trkpt lat="47.546510" lon="7.865766">
        <ele>336.264122</ele>
        <time>2021-11-07T11:59:04.647Z</time>
      </trkpt>
      <trkpt lat="47.546327" lon="7.865959">
        <ele>336.257405</ele>
        <time>2021-11-07T11:59:08.162Z</time>
      </trkpt>
      <trkpt lat="47.546096" lon="7.866147">
        <ele>336.257405</ele>
        <time>2021-11-07T11:59:12.714Z</time>
      </trkpt>
      <trkpt lat="47.545240" lon="7.866887">
        <ele>336.257405</ele>
        <time>2021-11-07T11:59:29.136Z</time>
      </trkpt>
      <trkpt lat="47.545160" lon="7.866985">
        <ele>336.257405</ele>
        <time>2021-11-07T11:59:30.839Z</time>
      </trkpt>
      <trkpt lat="47.545003" lon="7.867278">
        <ele>336.257405</ele>
        <time>2021-11-07T11:59:35.420Z</time>
      </trkpt>
      <trkpt lat="47.544848" lon="7.867426">
        <ele>336.257405</ele>
        <time>2021-11-07T11:59:38.773Z</time>
      </trkpt>
    </trkseg>
  </trk>
</gpx>